Forum Crazy Orc - Centre de statistiques

Statistiques générales

Total des membres:
1 032
Total des messages:
97 119
Total des sujets:
4 123
Total des catégories:
4
Membres en ligne:
36
Connexions simultanées:
808 - 21 janvier 2020 à 20:55:59
En ligne aujourd'hui:
66
Total des pages vues:
34 888 574
Moyenne des inscriptions par jour:
0,25
Moyenne des messages par jour:
24,04
Moyenne des sujets par jour:
1,08
Total des sections:
40
Dernier membre:
Simleviking
Moyenne d'utilisateurs connectés par jour:
49,33
Ratio hommes/femmes:
7.1:1
Pages vues en moyenne par jour:
5 950,64

Top lanceurs de sujets

nunch
600
Morithil
348
ManuDevil
290
GroumpH
246
Scratchy
132
MAO
110
LeDupontesque
105
jules
99
snake
92
CCCP
85

Temps de connexion cumulé

Mandy
133j 19h 59m
GroumpH
112j 9h 9m
CCCP
87j 7h 11m
Nukeflow
73j 8h 19m
ManuDevil
67j 16h 19m
Felipe
61j 12h 19m
dao
56j 17h 58m
nunch
49j 1h 9m
Rh
42j 23h 32m
Patate
42j 7h 19m

Historique du forum (basé sur l'heure interne du forum)

Résumé annuel Nouveaux sujets Nouveaux messages Nouveaux membres Connexions simultanées Pages vues
* 2023 43 220 27 165 856 049
Mars 2023 11 55 3 155 281 557
Février 2023 13 62 5 165 274 947
Janvier 2023 19 103 19 148 299 545
* 2022 183 1 154 96 261 3 778 792
Décembre 2022 9 37 1 161 306 381
Novembre 2022 16 103 6 261 350 274
Octobre 2022 11 120 17 208 290 108
Septembre 2022 17 115 6 258 357 415
2022-09-01 0 0 0 128 16 661
2022-09-02 0 0 0 121 10 578
2022-09-03 0 4 0 109 9 553
2022-09-04 1 11 1 86 11 208
2022-09-05 0 4 0 82 15 189
2022-09-06 0 2 0 79 11 992
2022-09-07 0 11 0 90 7 293
2022-09-08 4 5 0 83 12 257
2022-09-09 0 3 1 82 24 589
2022-09-10 1 4 0 79 10 685
2022-09-11 0 5 0 98 9 991
2022-09-12 0 0 0 83 10 009
2022-09-13 0 6 0 87 10 925
2022-09-14 0 1 0 104 13 455
2022-09-15 0 2 0 106 14 043
2022-09-16 0 2 0 93 8 130
2022-09-17 0 7 0 71 8 485
2022-09-18 3 9 0 42 7 202
2022-09-19 0 3 0 42 7 737
2022-09-20 0 1 0 54 7 899
2022-09-21 0 3 0 97 9 162
2022-09-22 0 2 0 59 7 878
2022-09-23 1 9 1 109 11 811
2022-09-24 1 5 2 40 8 832
2022-09-25 1 2 0 258 12 849
2022-09-26 0 1 0 115 13 354
2022-09-27 0 0 0 119 15 370
2022-09-28 5 11 1 164 29 200
2022-09-29 0 0 0 52 10 432
2022-09-30 0 2 0 49 10 646
Août 2022 15 108 9 147 318 817
Juillet 2022 13 69 4 208 308 045
Juin 2022 14 76 4 62 333 112
Mai 2022 16 118 8 91 339 244
2022-05-01 0 6 0 50 6 710
2022-05-02 0 2 2 44 5 920
2022-05-03 0 2 0 44 6 901
2022-05-04 0 6 0 48 11 189
2022-05-05 0 1 0 47 12 307
2022-05-06 0 1 0 60 23 346
2022-05-07 0 6 1 61 29 361
2022-05-08 1 5 1 91 19 240
2022-05-09 1 12 0 72 14 879
2022-05-10 0 2 0 61 15 852
2022-05-11 0 0 0 59 11 814
2022-05-12 2 14 1 43 8 964
2022-05-13 0 5 0 58 6 886
2022-05-14 0 2 0 32 8 302
2022-05-15 0 0 0 39 10 632
2022-05-16 7 9 0 59 11 094
2022-05-17 1 6 1 40 9 245
2022-05-18 0 3 0 43 9 669
2022-05-19 0 3 0 36 10 724
2022-05-20 0 4 0 47 13 804
2022-05-21 0 5 0 46 8 820
2022-05-22 1 2 0 45 8 742
2022-05-23 2 2 0 45 9 308
2022-05-24 0 4 1 52 9 886
2022-05-25 0 2 0 48 7 740
2022-05-26 0 3 0 47 8 972
2022-05-27 0 2 0 49 7 978
2022-05-28 1 3 1 47 7 507
2022-05-29 0 2 0 43 5 171
2022-05-30 0 3 0 49 8 361
2022-05-31 0 1 0 49 9 920
Avril 2022 18 133 12 61 254 691
Mars 2022 15 123 8 65 281 935
2022-03-01 0 3 0 48 8 993
2022-03-02 1 8 1 45 10 064
2022-03-03 1 2 1 50 8 853
2022-03-04 0 4 0 44 7 834
2022-03-05 0 2 0 41 7 119
2022-03-06 0 0 0 37 10 411
2022-03-07 0 3 0 54 12 871
2022-03-08 0 9 0 36 8 020
2022-03-09 0 4 0 33 8 530
2022-03-10 2 5 0 44 12 186
2022-03-11 0 3 0 42 15 489
2022-03-12 0 6 0 38 11 948
2022-03-13 3 3 1 37 8 518
2022-03-14 0 10 0 36 3 827
2022-03-15 1 7 0 41 5 401
2022-03-16 0 2 0 39 5 518
2022-03-17 0 1 0 39 6 210
2022-03-18 0 3 2 41 8 871
2022-03-19 3 10 2 40 8 261
2022-03-20 0 2 0 41 7 879
2022-03-21 0 1 0 39 7 223
2022-03-22 0 2 0 39 5 856
2022-03-23 1 6 0 63 8 416
2022-03-24 0 3 0 43 8 308
2022-03-25 2 8 0 55 5 010
2022-03-26 0 6 0 43 11 353
2022-03-27 0 1 0 48 12 519
2022-03-28 0 1 1 41 14 845
2022-03-29 0 3 0 65 10 578
2022-03-30 0 2 0 54 8 689
2022-03-31 1 3 0 55 12 335
Février 2022 17 84 9 58 314 588
Janvier 2022 22 68 12 70 324 182
2022-01-01 0 0 0 39 10 922
2022-01-02 4 6 0 38 11 523
2022-01-03 0 2 0 51 9 782
2022-01-04 0 4 0 43 7 524
2022-01-05 1 2 1 35 10 245
2022-01-06 2 2 0 36 8 915
2022-01-07 0 0 0 55 8 448
2022-01-08 0 1 1 38 9 864
2022-01-09 0 0 0 42 10 293
2022-01-10 3 4 1 47 13 227
2022-01-11 0 0 0 50 10 507
2022-01-12 0 1 0 70 33 842
2022-01-13 0 3 0 43 9 184
2022-01-14 0 2 0 43 12 187
2022-01-15 0 1 0 39 10 512
2022-01-16 1 2 2 38 12 767
2022-01-17 1 4 2 45 10 200
2022-01-18 0 1 0 42 11 009
2022-01-19 0 2 0 38 9 173
2022-01-20 1 2 1 50 7 081
2022-01-21 0 0 0 44 5 118
2022-01-22 0 2 0 51 8 349
2022-01-23 1 4 1 53 6 097
2022-01-24 6 8 0 42 9 074
2022-01-25 0 0 0 52 9 326
2022-01-26 0 2 0 67 7 956
2022-01-27 1 6 1 49 9 815
2022-01-28 0 1 0 58 10 648
2022-01-29 1 3 1 37 10 936
2022-01-30 0 3 1 37 10 004
2022-01-31 0 0 0 41 9 654
* 2021 129 756 53 338 4 376 522
Décembre 2021 8 37 0 129 661 064
Novembre 2021 13 99 4 153 262 314
Octobre 2021 20 208 15 159 298 103
Septembre 2021 24 171 10 280 285 455
Août 2021 11 33 7 73 231 609
2021-08-01 0 0 0 28 9 012
2021-08-02 0 0 0 33 10 340
2021-08-03 0 0 0 48 9 087
2021-08-04 0 0 0 39 6 385
2021-08-05 0 0 1 40 5 603
2021-08-06 0 0 0 40 9 211
2021-08-07 0 0 0 40 10 577
2021-08-08 0 0 0 36 10 060
2021-08-09 0 0 0 40 11 728
2021-08-10 0 0 0 55 10 109
2021-08-11 0 0 0 37 6 508
2021-08-12 0 0 0 39 8 136
2021-08-13 1 3 1 41 6 454
2021-08-14 2 5 1 37 6 972
2021-08-15 0 0 0 43 9 840
2021-08-16 0 0 0 38 13 142
2021-08-17 0 0 0 45 7 592
2021-08-18 0 0 1 38 6 557
2021-08-19 0 0 0 37 6 038
2021-08-20 2 2 0 37 6 461
2021-08-21 0 0 0 48 6 027
2021-08-22 0 0 0 40 2 939
2021-08-23 0 1 0 35 3 225
2021-08-24 0 1 0 41 6 669
2021-08-25 3 7 1 50 9 922
2021-08-26 1 1 0 73 2 986
2021-08-27 0 0 0 35 2 451
2021-08-28 0 1 1 33 5 309
2021-08-29 0 0 0 32 8 982
2021-08-30 2 6 1 32 7 294
2021-08-31 0 6 0 42 5 993
Juillet 2021 6 8 2 81 305 173
Juin 2021 17 31 2 135 311 168
Mai 2021 3 31 4 268 597 777
Avril 2021 10 51 6 287 308 355
Mars 2021 7 24 1 308 444 900
2021-03-01 0 0 0 72 8 645
2021-03-02 1 2 0 62 7 066
2021-03-03 0 1 0 58 5 404
2021-03-04 0 0 1 61 5 201
2021-03-05 0 0 0 63 8 432
2021-03-06 0 0 0 60 4 862
2021-03-07 0 1 0 50 4 615
2021-03-08 0 0 0 55 4 461
2021-03-09 0 0 0 58 6 240
2021-03-10 0 0 0 65 8 568
2021-03-11 1 3 0 62 4 993
2021-03-12 0 1 0 55 5 378
2021-03-13 0 0 0 60 4 371
2021-03-14 0 1 0 65 5 377
2021-03-15 1 1 0 69 7 164
2021-03-16 0 1 0 98 8 406
2021-03-17 1 6 0 308 16 132
2021-03-18 0 0 0 75 162 827
2021-03-19 0 0 0 83 38 605
2021-03-20 0 2 0 68 10 275
2021-03-21 0 0 0 72 11 763
2021-03-22 0 0 0 54 8 930
2021-03-23 0 0 0 94 11 374
2021-03-24 0 0 0 97 12 163
2021-03-25 0 0 0 117 11 569
2021-03-26 0 1 0 127 11 884
2021-03-27 0 1 0 104 7 707
2021-03-28 0 0 0 89 8 951
2021-03-29 0 0 0 77 10 399
2021-03-30 0 0 0 73 11 056
2021-03-31 3 3 0 77 12 082
Février 2021 5 29 2 338 223 056
Janvier 2021 5 34 0 322 447 548
2021-01-01 0 0 0 65 8 853
2021-01-02 0 0 0 61 7 510
2021-01-03 0 0 0 56 8 223
2021-01-04 2 2 0 67 8 142
2021-01-05 0 3 0 56 8 281
2021-01-06 0 4 0 55 5 830
2021-01-07 0 2 0 55 4 092
2021-01-08 0 2 0 53 3 871
2021-01-09 0 0 0 70 5 919
2021-01-10 0 0 0 78 9 200
2021-01-11 1 2 0 66 7 730
2021-01-12 0 1 0 71 7 978
2021-01-13 0 1 0 64 8 287
2021-01-14 0 2 0 80 7 890
2021-01-15 0 0 0 85 9 193
2021-01-16 0 0 0 83 10 085
2021-01-17 0 3 0 81 9 818
2021-01-18 0 5 0 82 10 941
2021-01-19 1 1 0 86 9 009
2021-01-20 0 2 0 322 13 536
2021-01-21 0 1 0 81 24 497
2021-01-22 0 0 0 79 141 457
2021-01-23 0 0 0 85 10 393
2021-01-24 0 0 0 84 11 242
2021-01-25 1 1 0 80 10 151
2021-01-26 0 0 0 93 10 012
2021-01-27 0 1 0 88 10 831
2021-01-28 0 0 0 87 11 541
2021-01-29 0 1 0 81 9 358
2021-01-30 0 0 0 72 23 925
2021-01-31 0 0 0 67 19 753
* 2020 206 1 716 105 808 4 713 463
Décembre 2020 6 38 2 320 310 487
2020-12-01 1 1 0 121 10 809
2020-12-02 0 3 0 116 10 099
2020-12-03 0 2 0 114 11 876
2020-12-04 0 0 0 94 10 791
2020-12-05 0 3 0 82 9 574
2020-12-06 1 10 0 78 10 653
2020-12-07 0 4 0 68 10 998
2020-12-08 0 0 0 66 32 260
2020-12-09 0 1 0 67 7 435
2020-12-10 0 1 1 60 7 610
2020-12-11 0 0 0 60 7 643
2020-12-12 0 1 0 63 7 412
2020-12-13 0 1 0 50 7 185
2020-12-14 1 2 0 46 5 821
2020-12-15 0 1 0 44 8 427
2020-12-16 0 0 0 320 13 083
2020-12-17 0 0 0 74 9 703
2020-12-18 0 0 0 71 8 569
2020-12-19 0 0 0 63 7 390
2020-12-20 0 3 0 65 6 819
2020-12-21 1 1 0 59 6 108
2020-12-22 0 0 0 70 10 438
2020-12-23 0 1 0 73 9 331
2020-12-24 0 0 0 72 10 558
2020-12-25 0 0 0 77 9 826
2020-12-26 0 0 0 72 10 399
2020-12-27 1 1 1 88 10 008
2020-12-28 0 1 0 88 8 712
2020-12-29 1 1 0 105 10 795
2020-12-30 0 0 0 79 10 368
2020-12-31 0 0 0 69 9 787
Novembre 2020 12 97 3 352 464 426
Octobre 2020 21 169 7 346 497 422
2020-10-01 4 11 1 121 13 231
2020-10-02 0 15 0 130 15 235
2020-10-03 0 0 1 112 12 703
2020-10-04 3 10 1 119 108 419
2020-10-05 3 15 1 92 60 488
2020-10-06 0 16 0 118 11 489
2020-10-07 1 8 1 121 10 905
2020-10-08 0 9 0 143 14 006
2020-10-09 0 2 0 97 9 716
2020-10-10 1 4 1 94 11 237
2020-10-11 0 2 0 88 10 226
2020-10-12 3 7 0 85 9 874
2020-10-13 1 9 1 89 12 163
2020-10-14 0 11 0 346 16 344
2020-10-15 0 4 0 86 10 037
2020-10-16 0 0 0 90 9 449
2020-10-17 0 0 0 91 10 244
2020-10-18 0 9 0 78 8 796
2020-10-19 1 3 0 75 7 818
2020-10-20 3 9 0 88 7 872
2020-10-21 0 5 0 85 8 220
2020-10-22 0 10 0 87 10 088
2020-10-23 0 2 0 104 13 389
2020-10-24 0 0 0 95 12 852
2020-10-25 0 2 0 96 11 374
2020-10-26 0 1 0 98 10 283
2020-10-27 1 2 0 105 7 650
2020-10-28 0 2 0 107 10 881
2020-10-29 0 0 0 112 13 782
2020-10-30 0 1 0 114 15 295
2020-10-31 0 0 0 111 13 356
Septembre 2020 30 356 15 133 325 183
2020-09-01 1 11 0 132 11 858
2020-09-02 0 7 0 119 11 233
2020-09-03 0 3 0 133 12 311
2020-09-04 0 1 0 107 9 419
2020-09-05 0 5 0 98 9 623
2020-09-06 0 2 0 91 8 360
2020-09-07 2 5 0 89 7 613
2020-09-08 3 18 1 94 7 993
2020-09-09 0 5 0 78 8 983
2020-09-10 2 17 3 79 8 902
2020-09-11 0 17 0 75 7 934
2020-09-12 0 7 1 79 9 406
2020-09-13 2 22 1 85 8 825
2020-09-14 2 20 0 96 9 426
2020-09-15 1 11 1 77 9 576
2020-09-16 2 8 0 91 13 248
2020-09-17 2 16 1 82 11 164
2020-09-18 1 20 1 84 10 275
2020-09-19 1 12 2 84 11 478
2020-09-20 1 7 0 79 12 324
2020-09-21 4 36 2 87 11 686
2020-09-22 1 22 0 87 12 418
2020-09-23 1 18 1 90 14 222
2020-09-24 0 10 0 77 12 651
2020-09-25 0 12 0 83 13 598
2020-09-26 0 7 0 93 10 763
2020-09-27 0 2 0 99 9 820
2020-09-28 2 17 0 117 11 475
2020-09-29 1 8 1 116 13 668
2020-09-30 1 10 0 123 14 931
Août 2020 16 147 7 163 471 897
Juillet 2020 16 77 2 100 345 760
Juin 2020 17 60 5 127 452 817
Mai 2020 7 22 3 295 321 652
Avril 2020 10 47 1 189 300 030
Mars 2020 24 253 3 199 467 854
Février 2020 18 171 9 323 281 798
Janvier 2020 29 279 48 808 474 137
2020-01-01 0 12 0 120 10 073
2020-01-02 1 9 0 127 13 456
2020-01-03 3 8 5 120 7 230
2020-01-04 1 7 2 109 7 682
2020-01-05 0 6 2 116 7 700
2020-01-06 2 9 1 122 10 580
2020-01-07 0 2 3 120 7 752
2020-01-08 1 11 3 117 8 845
2020-01-09 2 13 1 115 11 380
2020-01-10 0 6 1 106 9 117
2020-01-11 0 9 0 188 8 366
2020-01-12 3 17 3 120 9 658
2020-01-13 0 10 1 268 9 745
2020-01-14 2 5 3 625 12 117
2020-01-15 0 1 0 587 10 280
2020-01-16 0 15 2 597 12 766
2020-01-17 2 17 3 575 11 348
2020-01-18 0 9 2 108 11 823
2020-01-19 0 8 1 132 7 576
2020-01-20 0 2 0 589 7 895
2020-01-21 0 4 1 808 8 119
2020-01-22 4 9 0 507 11 803
2020-01-23 0 1 1 383 6 222
2020-01-24 1 15 1 244 6 849
2020-01-25 0 2 1 110 7 819
2020-01-26 2 13 2 118 38 722
2020-01-27 0 6 3 116 167 649
2020-01-28 2 11 3 108 7 008
2020-01-29 2 13 1 114 7 552
2020-01-30 0 17 0 111 7 527
2020-01-31 1 12 2 106 9 478
* 2019 246 3 411 313 446 3 308 531
Décembre 2019 18 159 26 446 351 248
Novembre 2019 16 245 33 325 524 135
Octobre 2019 24 272 59 121 189 762
2019-10-01 2 8 1 94 6 155
2019-10-02 1 4 4 88 3 845
2019-10-03 3 9 1 96 3 683
2019-10-04 0 14 2 89 5 498
2019-10-05 0 1 0 84 20 461
2019-10-06 2 9 2 99 13 970
2019-10-07 0 6 0 89 7 494
2019-10-08 0 11 1 101 7 092
2019-10-09 0 11 3 109 4 391
2019-10-10 2 19 3 96 5 295
2019-10-11 1 30 1 99 5 265
2019-10-12 0 19 5 115 5 091
2019-10-13 0 4 1 121 6 720
2019-10-14 2 14 2 108 6 374
2019-10-15 1 7 2 105 5 930
2019-10-16 0 3 1 99 5 079
2019-10-17 0 8 1 103 5 643
2019-10-18 0 3 2 96 4 595
2019-10-19 6 27 3 92 3 558
2019-10-20 0 7 1 112 5 029
2019-10-21 1 8 2 109 4 212
2019-10-22 0 7 1 104 4 800
2019-10-23 0 2 1 109 4 102
2019-10-24 0 9 1 106 6 806
2019-10-25 1 6 3 108 5 045
2019-10-26 0 2 2 106 5 937
2019-10-27 0 3 1 104 5 538
2019-10-28 2 6 3 103 4 525
2019-10-29 0 0 5 100 5 133
2019-10-30 0 3 3 100 4 364
2019-10-31 0 12 1 110 8 132
Septembre 2019 25 386 54 141 376 708
Août 2019 22 257 31 122 225 760
Juillet 2019 24 281 62 149 190 301
Juin 2019 11 171 3 112 246 519
2019-06-01 0 1 0 103 2 817
2019-06-02 0 1 0 97 2 941
2019-06-03 0 3 0 91 6 524
2019-06-04 0 14 0 87 11 150
2019-06-05 0 8 0 90 9 570
2019-06-06 0 5 0 99 10 447
2019-06-07 1 16 1 109 8 522
2019-06-08 0 5 1 93 5 588
2019-06-09 0 8 0 92 4 131
2019-06-10 1 8 0 93 4 120
2019-06-11 1 5 1 105 29 392
2019-06-12 0 4 0 102 13 902
2019-06-13 0 1 0 98 5 417
2019-06-14 0 5 0 104 10 181
2019-06-15 0 0 0 99 11 438
2019-06-16 0 4 0 93 9 146
2019-06-17 1 3 0 99 7 622
2019-06-18 0 0 0 104 9 803
2019-06-19 2 4 0 102 8 936
2019-06-20 0 2 0 106 7 574
2019-06-21 0 5 0 100 7 703
2019-06-22 0 6 0 103 7 936
2019-06-23 0 9 0 108 6 964
2019-06-24 4 13 0 102 5 006
2019-06-25 0 4 0 103 3 748
2019-06-26 0 6 0 112 7 551
2019-06-27 0 10 0 104 6 651
2019-06-28 0 10 0 93 7 044
2019-06-29 0 3 0 100 8 017
2019-06-30 1 8 0 102 6 678
Mai 2019 23 311 10 167 218 891
2019-05-01 0 0 0 42 7 579
2019-05-02 1 11 0 51 5 081
2019-05-03 1 30 0 46 4 550
2019-05-04 2 30 2 68 9 688
2019-05-05 2 23 0 62 9 610
2019-05-06 0 14 0 63 6 169
2019-05-07 0 7 0 52 3 798
2019-05-08 1 9 0 91 6 925
2019-05-09 1 9 1 98 10 005
2019-05-10 1 8 1 45 9 905
2019-05-11 7 14 0 46 10 729
2019-05-12 0 10 1 136 10 508
2019-05-13 1 10 0 167 10 276
2019-05-14 0 1 1 165 13 350
2019-05-15 0 11 1 129 11 534
2019-05-16 0 18 0 132 11 759
2019-05-17 0 8 0 99 8 749
2019-05-18 1 12 0 104 3 904
2019-05-19 1 4 0 27 2 513
2019-05-20 2 14 1 30 3 181
2019-05-21 0 11 0 29 2 830
2019-05-22 0 8 0 121 4 397
2019-05-23 0 10 0 120 5 497
2019-05-24 0 3 0 115 10 400
2019-05-25 0 10 0 104 7 847
2019-05-26 0 5 0 102 6 183
2019-05-27 2 9 0 107 8 783
2019-05-28 0 8 0 98 4 284
2019-05-29 0 2 1 102 3 072
2019-05-30 0 0 0 91 2 845
2019-05-31 0 2 1 93 2 940
Avril 2019 21 294 9 174 311 459
2019-04-01 1 11 0 174 7 945
2019-04-02 3 24 0 122 7 494
2019-04-03 1 14 0 142 9 858
2019-04-04 0 8 0 139 10 089
2019-04-05 0 2 0 133 12 161
2019-04-06 1 12 1 133 7 608
2019-04-07 0 6 0 120 7 430
2019-04-08 1 14 1 135 8 563
2019-04-09 0 13 0 137 16 179
2019-04-10 2 17 0 144 19 838
2019-04-11 1 14 1 138 21 613
2019-04-12 0 14 0 119 19 438
2019-04-13 1 11 3 51 7 170
2019-04-14 0 4 0 64 8 623
2019-04-15 0 0 0 61 10 243
2019-04-16 0 1 0 55 8 411
2019-04-17 0 2 0 72 6 278
2019-04-18 1 9 0 62 9 286
2019-04-19 2 8 0 70 7 179
2019-04-20 0 5 0 129 4 258
2019-04-21 0 11 1 152 3 979
2019-04-22 2 7 0 170 5 151
2019-04-23 0 9 0 59 8 482
2019-04-24 0 17 0 78 9 241
2019-04-25 1 13 2 57 13 826
2019-04-26 0 6 0 58 15 753
2019-04-27 0 2 0 47 12 881
2019-04-28 3 17 0 58 10 108
2019-04-29 1 20 0 57 11 176
2019-04-30 0 3 0 58 11 198
Mars 2019 22 372 16 142 344 146
2019-03-01 0 30 0 102 3 220
2019-03-02 0 23 0 102 3 097
2019-03-03 0 4 0 99 2 763
2019-03-04 0 5 0 105 2 518
2019-03-05 0 11 0 99 3 314
2019-03-06 0 11 1 97 5 983
2019-03-07 1 6 2 102 6 254
2019-03-08 1 24 1 100 9 845
2019-03-09 1 11 1 104 9 974
2019-03-10 0 18 0 109 12 925
2019-03-11 3 18 1 124 22 284
2019-03-12 0 14 0 120 15 724
2019-03-13 1 23 1 125 13 212
2019-03-14 0 7 1 132 13 861
2019-03-15 2 17 1 112 12 323
2019-03-16 0 6 1 135 11 288
2019-03-17 0 6 0 129 10 798
2019-03-18 1 8 0 122 10 562
2019-03-19 1 7 0 126 9 470
2019-03-20 1 16 1 122 10 084
2019-03-21 1 12 1 128 13 887
2019-03-22 0 4 0 129 13 984
2019-03-23 2 9 0 123 14 498
2019-03-24 4 13 0 129 36 957
2019-03-25 0 14 0 134 17 651
2019-03-26 1 11 1 126 9 572
2019-03-27 0 4 0 56 8 627
2019-03-28 0 14 1 142 8 864
2019-03-29 0 5 0 126 11 607
2019-03-30 0 2 0 131 10 223
2019-03-31 2 19 2 129 8 777
Février 2019 18 288 4 110 142 132
Janvier 2019 22 375 6 113 187 470
2019-01-01 1 15 2 48 3 038
2019-01-02 1 15 0 46 2 001
2019-01-03 0 6 0 21 1 368
2019-01-04 1 11 0 45 1 552
2019-01-05 0 6 0 53 3 362
2019-01-06 0 8 0 63 4 705
2019-01-07 0 9 0 55 12 308
2019-01-08 2 13 0 53 18 061
2019-01-09 1 10 1 113 10 965
2019-01-10 1 29 1 113 14 217
2019-01-11 0 13 0 109 30 587
2019-01-12 0 7 0 109 8 140
2019-01-13 1 10 0 107 5 158
2019-01-14 4 31 0 103 4 347
2019-01-15 1 10 0 105 3 882
2019-01-16 1 13 0 111 3 382
2019-01-17 1 18 1 80 2 837
2019-01-18 0 8 0 101 2 592
2019-01-19 0 12 1 113 3 015
2019-01-20 0 16 0 100 2 773
2019-01-21 1 13 0 104 3 262
2019-01-22 0 4 0 103 2 681
2019-01-23 0 18 0 100 2 956
2019-01-24 0 14 0 103 4 754
2019-01-25 1 3 0 104 2 549
2019-01-26 4 22 0 106 3 353
2019-01-27 0 4 0 102 3 126
2019-01-28 0 7 0 108 3 010
2019-01-29 0 8 0 102 5 181
2019-01-30 0 6 0 100 9 811
2019-01-31 1 16 0 89 8 497
* 2018 338 6 176 81 641 2 624 946
Décembre 2018 43 306 8 253 421 582
Novembre 2018 26 467 9 641 383 363
2018-11-01 1 9 1 134 8 941
2018-11-02 0 12 0 138 13 320
2018-11-03 1 7 1 144 15 011
2018-11-04 5 36 0 176 20 866
2018-11-05 2 19 0 163 16 221
2018-11-06 1 18 1 130 15 015
2018-11-07 0 18 0 239 17 530
2018-11-08 1 13 1 200 11 015
2018-11-09 0 18 0 265 17 559
2018-11-10 1 13 1 262 23 662
2018-11-11 0 10 0 161 21 706
2018-11-12 1 22 0 274 33 147
2018-11-13 0 25 0 425 19 047
2018-11-14 1 18 1 550 12 156
2018-11-15 1 8 1 641 16 863
2018-11-16 1 14 0 168 16 611
2018-11-17 0 5 1 577 19 696
2018-11-18 0 5 0 184 9 470
2018-11-19 1 10 1 373 15 763
2018-11-20 1 23 0 257 11 354
2018-11-21 2 8 0 110 5 798
2018-11-22 0 9 0 89 5 367
2018-11-23 1 22 0 92 4 528
2018-11-24 1 21 0 30 2 309
2018-11-25 2 13 0 43 4 520
2018-11-26 2 26 0 34 2 339
2018-11-27 0 21 0 42 2 307
2018-11-28 0 20 0 116 5 597
2018-11-29 0 9 0 117 6 218
2018-11-30 0 15 0 109 9 427
Octobre 2018 34 527 6 321 248 725
2018-10-01 0 16 0 104 3 916
2018-10-02 2 19 0 102 5 182
2018-10-03 0 11 0 124 6 042
2018-10-04 1 8 0 89 7 397
2018-10-05 0 1 1 89 4 993
2018-10-06 1 10 0 123 5 725
2018-10-07 1 14 1 93 5 795
2018-10-08 2 17 0 102 5 479
2018-10-09 1 29 1 113 7 032
2018-10-10 1 19 0 139 7 853
2018-10-11 2 19 0 126 7 235
2018-10-12 1 28 0 140 7 594
2018-10-13 0 12 0 135 7 817
2018-10-14 5 26 0 146 7 428
2018-10-15 2 51 0 149 7 144
2018-10-16 0 22 0 102 6 306
2018-10-17 4 25 0 121 6 311
2018-10-18 2 14 0 122 6 339
2018-10-19 0 10 0 136 5 992
2018-10-20 0 8 0 115 6 644
2018-10-21 0 15 1 129 6 181
2018-10-22 0 11 0 112 5 588
2018-10-23 1 9 0 127 15 828
2018-10-24 1 15 1 135 23 623
2018-10-25 0 8 0 321 10 005
2018-10-26 2 34 1 145 7 134
2018-10-27 2 19 0 252 10 544
2018-10-28 0 9 0 276 9 982
2018-10-29 1 15 0 269 10 127
2018-10-30 2 21 0 207 9 059
2018-10-31 0 12 0 255 12 430
Septembre 2018 34 641 10 127 216 306
Août 2018 32 583 16 101 188 648
Juillet 2018 21 386 3 104 182 475
2018-07-01 0 17 0 98 5 851
2018-07-02 0 3 1 93 5 331
2018-07-03 0 9 0 102 6 039
2018-07-04 3 21 0 95 8 377
2018-07-05 0 5 0 89 5 211
2018-07-06 5 16 0 94 5 550
2018-07-07 0 10 0 92 5 422
2018-07-08 0 12 0 94 7 624
2018-07-09 1 11 1 93 5 229
2018-07-10 1 8 0 93 5 538
2018-07-11 0 19 0 86 5 102
2018-07-12 0 9 1 84 4 916
2018-07-13 0 17 0 82 5 453
2018-07-14 0 9 0 90 4 210
2018-07-15 0 7 0 82 5 017
2018-07-16 0 26 0 90 8 111
2018-07-17 1 19 0 102 5 632
2018-07-18 4 27 0 102 6 009
2018-07-19 1 28 0 99 6 343
2018-07-20 1 15 0 104 6 087
2018-07-21 1 13 0 93 6 072
2018-07-22 1 24 0 91 5 850
2018-07-23 0 12 0 97 6 595
2018-07-24 0 5 0 94 4 057
2018-07-25 0 5 0 96 6 576
2018-07-26 1 2 0 92 6 460
2018-07-27 0 11 0 89 6 309
2018-07-28 0 4 0 91 6 042
2018-07-29 0 5 0 93 5 366
2018-07-30 1 4 0 94 6 266
2018-07-31 0 13 0 87 5 830
Juin 2018 31 442 3 110 213 303
Mai 2018 21 422 4 107 174 393
Avril 2018 25 564 5 104 159 849
Mars 2018 20 634 4 96 152 933
Février 2018 25 631 7 93 121 912
Janvier 2018 26 573 6 94 161 457
* 2017 346 6 100 56 180 1 675 168
Décembre 2017 37 499 6 91 136 063
Novembre 2017 37 675 6 93 169 670
Octobre 2017 15 426 2 93 151 449
Septembre 2017 28 548 5 94 135 543
2017-09-01 0 19 0 85 4 606
2017-09-02 6 27 1 81 5 694
2017-09-03 0 13 0 80 4 704
2017-09-04 0 16 0 73 3 541
2017-09-05 1 31 0 70 4 047
2017-09-06 0 12 0 74 8 718
2017-09-07 1 10 0 72 3 635
2017-09-08 2 11 0 73 3 838
2017-09-09 0 25 0 73 3 496
2017-09-10 1 20 1 77 4 556
2017-09-11 3 16 0 94 4 101
2017-09-12 0 23 0 80 4 866
2017-09-13 1 11 1 76 4 485
2017-09-14 0 12 0 79 4 369
2017-09-15 2 27 1 85 4 589
2017-09-16 1 10 1 81 3 899
2017-09-17 0 28 0 85 4 424
2017-09-18 2 29 0 79 5 214
2017-09-19 1 25 0 76 4 323
2017-09-20 2 9 0 74 4 217
2017-09-21 1 13 0 75 4 677
2017-09-22 0 19 0 77 3 928
2017-09-23 0 15 0 71 4 378
2017-09-24 1 23 0 75 4 483
2017-09-25 0 32 0 82 4 657
2017-09-26 0 21 0 81 4 174
2017-09-27 0 13 0 76 4 562
2017-09-28 0 8 0 83 4 632
2017-09-29 3 23 0 79 4 537
2017-09-30 0 7 0 77 4 193
Août 2017 29 384 6 99 148 097
Juillet 2017 25 490 5 87 176 472
Juin 2017 33 603 4 89 156 248
2017-06-01 0 8 0 75 4 239
2017-06-02 1 17 1 65 4 409
2017-06-03 0 12 0 72 4 164
2017-06-04 0 3 0 70 3 563
2017-06-05 2 46 2 75 5 265
2017-06-06 1 33 0 68 4 164
2017-06-07 0 20 0 89 5 315
2017-06-08 0 14 0 87 7 512
2017-06-09 0 18 0 88 7 578
2017-06-10 1 2 1 80 6 209
2017-06-11 1 10 0 78 4 584
2017-06-12 1 25 0 77 6 725
2017-06-13 1 13 0 89 5 967
2017-06-14 0 8 0 80 4 236
2017-06-15 0 8 0 77 5 192
2017-06-16 0 23 0 66 4 501
2017-06-17 2 19 0 66 5 211
2017-06-18 1 40 0 68 5 927
2017-06-19 3 39 0 66 5 852
2017-06-20 0 21 0 67 5 460
2017-06-21 0 3 0 71 7 510
2017-06-22 1 28 0 65 5 213
2017-06-23 8 39 0 74 5 330
2017-06-24 2 24 0 66 4 707
2017-06-25 1 19 0 61 5 314
2017-06-26 1 50 0 62 7 390
2017-06-27 1 13 0 56 4 039
2017-06-28 2 17 0 63 3 554
2017-06-29 0 16 0 79 3 830
2017-06-30 3 15 0 64 3 288
Mai 2017 26 470 2 99 181 189
Avril 2017 31 490 5 180 139 896
Mars 2017 27 432 3 119 90 981
Février 2017 31 587 7 87 74 924
2017-02-01 1 14 0 55 2 090
2017-02-02 0 10 0 26 2 549
2017-02-03 2 38 0 74 3 460
2017-02-04 0 3 0 75 4 033
2017-02-05 4 34 1 66 4 596
2017-02-06 3 76 1 73 4 948
2017-02-07 1 30 0 76 4 581
2017-02-08 0 19 0 77 4 379
2017-02-09 1 26 2 70 4 735
2017-02-10 1 27 0 70 3 647
2017-02-11 0 10 0 87 3 878
2017-02-12 2 13 0 82 3 838
2017-02-13 2 70 0 81 4 357
2017-02-14 4 31 0 16 1 711
2017-02-15 2 25 0 24 3 776
2017-02-16 2 20 1 16 3 155
2017-02-17 0 15 0 17 2 432
2017-02-18 1 10 0 16 1 365
2017-02-19 0 13 1 15 1 380
2017-02-20 1 27 1 25 1 662
2017-02-21 2 8 0 17 1 136
2017-02-22 1 12 0 19 946
2017-02-23 0 20 0 25 1 535
2017-02-24 1 10 0 17 879
2017-02-25 0 8 0 20 940
2017-02-26 0 10 0 18 1 219
2017-02-27 0 5 0 15 954
2017-02-28 0 3 0 13 743
Janvier 2017 27 496 5 80 114 636
2017-01-01 1 23 0 54 2 509
2017-01-02 2 27 0 28 2 705
2017-01-03 0 12 0 73 3 331
2017-01-04 1 5 0 65 3 498
2017-01-05 1 16 0 64 3 927
2017-01-06 0 18 0 65 3 258
2017-01-07 1 9 1 53 3 015
2017-01-08 0 16 0 57 3 949
2017-01-09 0 5 0 52 5 170
2017-01-10 1 9 0 49 4 823
2017-01-11 0 15 0 71 3 456
2017-01-12 0 12 1 80 3 183
2017-01-13 0 7 1 58 2 124
2017-01-14 5 10 0 61 2 678
2017-01-15 1 7 0 63 3 386
2017-01-16 1 28 1 59 3 267
2017-01-17 0 8 0 50 2 647
2017-01-18 1 13 0 63 3 800
2017-01-19 0 8 0 57 2 844
2017-01-20 0 22 0 57 3 446
2017-01-21 5 26 0 55 4 318
2017-01-22 0 24 0 55 4 567
2017-01-23 1 24 1 51 4 320
2017-01-24 0 27 0 55 3 811
2017-01-25 0 7 0 73 3 931
2017-01-26 0 16 0 59 4 468
2017-01-27 0 8 0 58 4 403
2017-01-28 0 19 0 58 3 812
2017-01-29 1 20 0 64 5 384
2017-01-30 2 26 0 61 4 841
2017-01-31 3 29 0 68 3 765
* 2016 389 7 721 79 245 2 075 605
Décembre 2016 34 533 2 170 118 206
Novembre 2016 34 586 6 245 122 991
2016-11-01 0 34 0 79 3 768
2016-11-02 1 38 0 64 4 674
2016-11-03 0 17 0 50 3 172
2016-11-04 3 43 1 52 3 641
2016-11-05 0 23 1 54 4 697
2016-11-06 2 19 0 50 3 669
2016-11-07 1 24 0 81 3 628
2016-11-08 1 15 0 83 5 212
2016-11-09 0 11 1 52 2 529
2016-11-10 0 16 0 33 3 252
2016-11-11 1 17 0 66 3 953
2016-11-12 3 25 1 66 4 075
2016-11-13 1 4 0 62 4 031
2016-11-14 2 21 0 55 3 434
2016-11-15 0 20 0 245 4 465
2016-11-16 3 26 1 70 4 516
2016-11-17 0 26 0 64 4 350
2016-11-18 1 18 0 70 3 943
2016-11-19 0 16 0 68 4 222
2016-11-20 3 21 0 65 3 980
2016-11-21 0 14 0 60 3 884
2016-11-22 0 15 0 48 3 315
2016-11-23 1 14 0 86 4 910
2016-11-24 1 13 0 64 4 600
2016-11-25 4 30 0 68 4 613
2016-11-26 1 12 0 66 5 051
2016-11-27 3 14 1 59 4 515
2016-11-28 1 6 0 59 3 726
2016-11-29 1 29 0 61 5 179
2016-11-30 0 5 0 75 3 987
Octobre 2016 43 726 7 191 160 217
2016-10-01 0 2 0 77 5 321
2016-10-02 1 21 0 58 3 379
2016-10-03 0 20 0 65 4 029
2016-10-04 4 16 0 54 5 012
2016-10-05 2 26 1 54 8 464
2016-10-06 2 23 0 54 4 844
2016-10-07 3 30 0 58 4 198
2016-10-08 0 20 0 79 5 202
2016-10-09 2 16 0 139 7 188
2016-10-10 0 23 0 67 5 666
2016-10-11 5 27 0 65 5 851
2016-10-12 1 57 0 55 5 424
2016-10-13 4 46 1 60 5 322
2016-10-14 3 27 0 63 4 776
2016-10-15 6 27 0 191 5 482
2016-10-16 1 37 1 83 5 433
2016-10-17 3 23 0 82 4 868
2016-10-18 0 9 0 66 3 634
2016-10-19 0 13 1 64 4 158
2016-10-20 0 22 1 56 15 180
2016-10-21 0 14 0 55 4 340
2016-10-22 1 19 0 57 3 387
2016-10-23 0 3 0 30 2 919
2016-10-24 1 40 1 78 4 044
2016-10-25 2 31 0 76 4 859
2016-10-26 0 26 0 72 5 816
2016-10-27 0 20 0 72 3 954
2016-10-28 0 19 0 70 4 387
2016-10-29 0 26 0 63 4 333
2016-10-30 1 16 0 66 4 530
2016-10-31 1 27 1 77 4 217
Septembre 2016 26 657 9 85 157 449
2016-09-01 0 6 0 74 4 766
2016-09-02 0 11 0 20 3 957
2016-09-03 2 15 0 24 5 392
2016-09-04 2 24 2 27 6 016
2016-09-05 1 48 0 60 6 378
2016-09-06 0 19 0 64 16 148
2016-09-07 0 25 0 29 5 865
2016-09-08 0 8 1 28 2 521
2016-09-09 2 25 2 66 4 139
2016-09-10 1 13 0 57 3 591
2016-09-11 0 20 0 52 3 703
2016-09-12 5 46 2 56 3 958
2016-09-13 2 32 0 56 4 310
2016-09-14 1 36 0 57 3 961
2016-09-15 0 20 0 54 3 639
2016-09-16 0 8 0 85 5 882
2016-09-17 1 17 1 63 4 479
2016-09-18 1 37 0 55 4 935
2016-09-19 1 18 0 55 4 541
2016-09-20 2 43 0 53 6 073
2016-09-21 0 23 0 43 3 742
2016-09-22 1 18 1 53 4 611
2016-09-23 0 15 0 70 4 243
2016-09-24 0 18 0 70 5 283
2016-09-25 2 19 0 59 15 111
2016-09-26 0 12 0 62 4 202
2016-09-27 1 10 0 55 4 151
2016-09-28 1 28 0 55 4 096
2016-09-29 0 24 0 58 3 581
2016-09-30 0 19 0 55 4 175
Août 2016 31 721 9 114 169 873
Juillet 2016 19 513 3 58 166 690
Juin 2016 30 565 5 53 211 715
2016-06-01 0 23 0 50 5 705
2016-06-02 0 11 0 43 5 378
2016-06-03 2 19 1 44 5 189
2016-06-04 3 11 1 41 4 784
2016-06-05 0 5 0 43 4 968
2016-06-06 0 12 0 42 4 648
2016-06-07 1 23 0 38 4 900
2016-06-08 3 37 0 44 5 735
2016-06-09 0 14 0 45 5 120
2016-06-10 1 34 0 44 6 103
2016-06-11 1 16 0 41 10 876
2016-06-12 2 17 1 41 13 531
2016-06-13 1 35 0 53 6 090
2016-06-14 3 21 1 41 5 179
2016-06-15 0 17 0 51 5 317
2016-06-16 1 28 1 42 5 293
2016-06-17 1 21 0 44 5 043
2016-06-18 1 23 0 43 5 316
2016-06-19 3 20 0 42 5 955
2016-06-20 2 35 0 42 6 606
2016-06-21 1 25 0 44 7 531
2016-06-22 0 23 0 38 6 542
2016-06-23 0 25 0 42 7 081
2016-06-24 0 11 0 43 8 292
2016-06-25 0 10 0 44 10 674
2016-06-26 0 7 0 44 4 154
2016-06-27 2 5 0 41 6 089
2016-06-28 1 12 0 38 13 559
2016-06-29 1 15 0 43 13 424
2016-06-30 0 10 0 53 12 633
Mai 2016 40 1 116 8 94 166 514
Avril 2016 27 529 7 65 155 208
Mars 2016 35 513 11 88 224 056
Février 2016 35 640 4 96 192 454
Janvier 2016 35 622 8 95 230 232
* 2015 373 6 684 79 100 1 549 803
Décembre 2015 28 499 7 68 140 303
Novembre 2015 40 724 5 35 146 607
Octobre 2015 32 760 10 84 227 528
2015-10-01 1 18 0 82 8 525
2015-10-02 1 10 0 80 4 829
2015-10-03 0 7 0 13 2 541
2015-10-04 0 7 0 74 5 391
2015-10-05 3 45 2 39 10 558
2015-10-06 4 42 1 84 20 928
2015-10-07 0 30 0 79 21 334
2015-10-08 0 12 0 39 12 723
2015-10-09 1 14 2 22 4 574
2015-10-10 0 8 0 80 5 752
2015-10-11 1 36 0 23 4 613
2015-10-12 3 25 0 23 3 928
2015-10-13 0 35 0 20 3 575
2015-10-14 3 25 0 79 9 055
2015-10-15 1 32 0 22 7 638
2015-10-16 1 43 0 82 8 658
2015-10-17 0 34 0 62 6 865
2015-10-18 2 31 0 66 5 798
2015-10-19 0 21 0 73 5 660
2015-10-20 1 29 0 23 4 062
2015-10-21 0 22 0 28 20 035
2015-10-22 1 22 1 27 6 384
2015-10-23 2 15 0 25 6 058
2015-10-24 2 27 2 26 4 323
2015-10-25 0 11 0 32 4 915
2015-10-26 2 22 0 31 4 192
2015-10-27 0 26 1 41 5 915
2015-10-28 1 28 0 41 5 310
2015-10-29 2 29 0 21 4 485
2015-10-30 0 38 0 23 4 216
2015-10-31 0 16 1 27 4 688
Septembre 2015 40 948 13 100 169 012
Août 2015 36 566 12 61 119 954
2015-08-01 2 13 0 18 2 717
2015-08-02 0 7 0 13 2 055
2015-08-03 7 20 2 15 2 199
2015-08-04 1 9 0 40 3 590
2015-08-05 0 13 0 16 2 911
2015-08-06 0 5 0 14 2 574
2015-08-07 0 22 0 17 3 967
2015-08-08 0 14 0 17 3 023
2015-08-09 5 32 1 18 2 992
2015-08-10 2 30 1 17 4 088
2015-08-11 1 16 1 15 2 652
2015-08-12 3 23 0 16 2 544
2015-08-13 0 7 0 14 2 436
2015-08-14 0 8 0 55 4 945
2015-08-15 1 11 0 52 4 116
2015-08-16 0 12 0 13 2 678
2015-08-17 0 2 0 54 3 352
2015-08-18 0 6 0 49 3 473
2015-08-19 0 2 0 29 2 985
2015-08-20 1 13 1 19 3 315
2015-08-21 0 13 0 54 5 973
2015-08-22 0 4 0 13 4 672
2015-08-23 3 21 1 21 3 708
2015-08-24 2 33 2 19 4 048
2015-08-25 1 46 1 25 5 182
2015-08-26 0 17 0 18 5 281
2015-08-27 0 23 0 28 5 761
2015-08-28 1 44 1 17 5 899
2015-08-29 0 37 0 43 5 544
2015-08-30 1 26 1 43 3 953
2015-08-31 5 37 0 61 7 321
Juillet 2015 29 462 7 31 89 666
Juin 2015 24 453 5 30 112 317
2015-06-01 1 21 1 25 4 795
2015-06-02 0 13 0 13 1 648
2015-06-03 1 16 1 14 4 304
2015-06-04 1 25 0 14 3 105
2015-06-05 0 20 0 15 1 807
2015-06-06 1 21 0 17 2 532
2015-06-07 4 18 0 16 1 899
2015-06-08 0 12 0 14 2 343
2015-06-09 1 10 0 18 2 371
2015-06-10 0 10 0 20 7 902
2015-06-11 1 19 0 11 4 495
2015-06-12 0 7 0 13 1 558
2015-06-13 1 6 0 13 1 791
2015-06-14 0 11 0 14 2 048
2015-06-15 3 13 0 19 1 997
2015-06-16 0 10 0 18 1 599
2015-06-17 1 17 0 17 2 018
2015-06-18 0 13 0 12 1 641
2015-06-19 0 7 0 15 1 876
2015-06-20 0 9 0 12 1 521
2015-06-21 0 10 0 15 1 695
2015-06-22 1 19 0 16 2 896
2015-06-23 1 23 1 22 11 490
2015-06-24 2 23 0 30 13 135
2015-06-25 0 11 0 18 9 448
2015-06-26 3 23 0 20 11 127
2015-06-27 0 7 0 17 2 548
2015-06-28 0 5 0 13 2 651
2015-06-29 2 29 2 18 2 252
2015-06-30 0 25 0 19 1 825
Mai 2015 30 390 2 24 73 874
2015-05-01 0 17 0 15 2 030
2015-05-02 1 16 0 16 2 557
2015-05-03 1 29 0 18 2 371
2015-05-04 2 17 0 21 1 947
2015-05-05 0 2 0 16 1 636
2015-05-06 0 8 0 15 2 047
2015-05-07 0 6 0 14 2 022
2015-05-08 0 3 0 15 1 847
2015-05-09 0 5 0 18 1 813
2015-05-10 2 5 0 13 1 887
2015-05-11 0 6 0 14 1 631
2015-05-12 2 20 1 13 2 423
2015-05-13 0 11 0 13 2 977
2015-05-14 0 11 0 24 3 549
2015-05-15 2 11 0 18 2 773
2015-05-16 1 3 1 15 2 585
2015-05-17 0 6 0 12 2 212
2015-05-18 4 29 0 14 2 715
2015-05-19 0 8 0 15 1 683
2015-05-20 0 3 0 12 1 911
2015-05-21 1 4 0 13 2 338
2015-05-22 1 8 0 12 1 807
2015-05-23 1 6 0 15 2 186
2015-05-24 2 15 0 19 4 554
2015-05-25 1 21 0 24 2 499
2015-05-26 2 20 0 18 2 489
2015-05-27 0 21 0 17 1 695
2015-05-28 3 38 0 14 2 854
2015-05-29 4 23 0 15 4 584
2015-05-30 0 13 0 16 1 591
2015-05-31 0 5 0 11 2 661
Avril 2015 29 408 4 25 95 371
Mars 2015 38 550 7 37 130 116
Février 2015 15 434 2 24 123 854
Janvier 2015 32 490 5 44 121 201
* 2014 428 7 364 58 58 2 478 164
Décembre 2014 24 360 4 33 191 610
Novembre 2014 37 572 7 46 525 858
2014-11-01 0 10 0 39 31 767
2014-11-02 4 28 1 38 30 905
2014-11-03 2 15 1 46 35 171
2014-11-04 0 10 0 45 33 110
2014-11-05 1 19 0 42 33 257
2014-11-06 1 32 0 37 27 962
2014-11-07 3 33 0 40 33 652
2014-11-08 2 9 0 45 28 231
2014-11-09 1 24 0 32 22 476
2014-11-10 0 24 0 45 25 456
2014-11-11 0 29 0 35 24 461
2014-11-12 0 13 0 34 21 316
2014-11-13 0 10 0 27 13 857
2014-11-14 0 11 0 28 11 982
2014-11-15 2 21 0 34 10 235
2014-11-16 1 26 0 27 8 102
2014-11-17 2 16 0 25 10 338
2014-11-18 1 10 0 25 9 298
2014-11-19 0 8 0 25 10 140
2014-11-20 4 18 0 24 9 332
2014-11-21 0 12 1 26 11 050
2014-11-22 0 14 1 26 8 358
2014-11-23 2 15 1 22 6 229
2014-11-24 4 35 0 26 9 487
2014-11-25 0 14 0 30 14 490
2014-11-26 3 20 1 25 10 319
2014-11-27 0 31 0 28 9 632
2014-11-28 2 22 0 24 7 672
2014-11-29 2 27 1 25 9 524
2014-11-30 0 16 0 22 8 049
Octobre 2014 45 928 8 58 364 915
2014-10-01 2 17 0 19 4 681
2014-10-02 1 19 0 20 4 689
2014-10-03 2 14 0 14 3 669
2014-10-04 0 5 0 17 3 255
2014-10-05 0 1 0 19 2 928
2014-10-06 0 11 0 21 3 996
2014-10-07 3 25 1 20 3 179
2014-10-08 2 38 0 25 5 334
2014-10-09 2 52 0 23 6 395
2014-10-10 4 54 1 20 5 653
2014-10-11 0 14 0 27 6 513
2014-10-12 4 38 0 20 4 101
2014-10-13 1 60 1 23 7 192
2014-10-14 1 40 1 21 5 942
2014-10-15 0 50 0 19 8 910
2014-10-16 4 67 1 20 7 064
2014-10-17 2 59 0 24 7 070
2014-10-18 0 8 0 18 8 711
2014-10-19 1 18 0 14 7 781
2014-10-20 3 75 2 22 5 872
2014-10-21 2 43 0 21 6 010
2014-10-22 1 17 0 21 7 505
2014-10-23 2 34 0 20 6 639
2014-10-24 0 22 0 19 8 041
2014-10-25 2 16 0 24 10 924
2014-10-26 0 21 0 32 24 155
2014-10-27 0 16 0 41 31 060
2014-10-28 2 11 1 40 35 764
2014-10-29 3 46 0 58 43 273
2014-10-30 1 31 0 54 39 908
2014-10-31 0 6 0 53 38 701
Septembre 2014 24 549 8 32 162 413
Août 2014 17 251 4 27 191 624
Juillet 2014 25 369 3 30 236 312
2014-07-01 1 10 0 19 5 255
2014-07-02 2 27 0 18 5 751
2014-07-03 1 33 0 28 6 315
2014-07-04 1 28 1 30 9 465
2014-07-05 0 18 0 28 10 029
2014-07-06 0 9 0 22 8 518
2014-07-07 2 9 0 26 4 726
2014-07-08 1 9 1 20 6 102
2014-07-09 1 7 0 20 6 697
2014-07-10 0 5 0 22 5 937
2014-07-11 0 12 0 13 5 141
2014-07-12 0 8 0 23 8 506
2014-07-13 1 7 0 19 9 921
2014-07-14 1 16 0 12 5 280
2014-07-15 4 12 0 13 3 488
2014-07-16 1 7 0 28 10 016
2014-07-17 0 9 0 24 16 100
2014-07-18 0 11 0 23 16 608
2014-07-19 1 7 0 18 16 697
2014-07-20 1 7 0 20 4 967
2014-07-21 0 1 0 26 6 993
2014-07-22 1 11 0 21 8 213
2014-07-23 0 13 0 23 8 227
2014-07-24 0 1 0 23 8 500
2014-07-25 1 8 0 21 8 352
2014-07-26 0 4 0 21 6 351
2014-07-27 1 22 1 11 2 847
2014-07-28 2 21 0 17 4 541
2014-07-29 0 7 0 16 6 234
2014-07-30 0 17 0 18 5 977
2014-07-31 2 13 0 15 4 558
Juin 2014 29 602 3 32 220 918
2014-06-01 1 5 0 24 6 791
2014-06-02 1 10 0 20 3 083
2014-06-03 1 21 0 28 5 918
2014-06-04 0 9 0 24 7 578
2014-06-05 2 32 0 23 6 468
2014-06-06 0 15 0 27 5 750
2014-06-07 1 20 0 27 6 064
2014-06-08 0 16 0 25 5 982
2014-06-09 0 15 0 31 5 881
2014-06-10 1 15 0 27 6 293
2014-06-11 1 26 0 32 9 966
2014-06-12 1 15 0 24 9 897
2014-06-13 1 18 0 29 6 454
2014-06-14 3 16 1 18 6 297
2014-06-15 0 27 0 28 10 859
2014-06-16 1 25 0 27 11 904
2014-06-17 1 24 0 27 7 926
2014-06-18 1 36 0 25 7 600
2014-06-19 0 16 0 25 7 850
2014-06-20 0 21 1 17 5 649
2014-06-21 1 24 0 16 7 833
2014-06-22 1 12 1 19 11 161
2014-06-23 4 41 0 25 12 869
2014-06-24 2 29 0 20 12 603
2014-06-25 1 27 0 20 6 974
2014-06-26 2 21 0 20 4 216
2014-06-27 1 17 0 20 5 405
2014-06-28 0 12 0 15 4 740
2014-06-29 0 20 0 16 4 717
2014-06-30 1 17 0 18 6 190
Mai 2014 34 842 6 29 157 174
Avril 2014 45 662 1 25 104 486
Mars 2014 32 595 4 26 120 439
Février 2014 24 660 5 28 102 996
Janvier 2014 92 974 5 33 99 419
* 2013 408 8 887 76 89 1 597 727
Décembre 2013 36 785 2 79 132 305
Novembre 2013 36 751 8 29 141 119
2013-11-01 4 33 2 29 4 258
2013-11-02 1 10 0 18 3 364
2013-11-03 0 18 0 17 4 043
2013-11-04 0 16 0 16 2 787
2013-11-05 0 12 0 19 4 349
2013-11-06 0 14 0 25 12 178
2013-11-07 0 30 0 23 5 858
2013-11-08 3 22 0 16 3 999
2013-11-09 0 10 0 19 4 800
2013-11-10 1 16 0 17 4 744
2013-11-11 2 14 0 13 3 463
2013-11-12 1 32 0 14 3 326
2013-11-13 0 12 0 17 2 912
2013-11-14 2 27 0 16 2 991
2013-11-15 0 17 0 15 2 883
2013-11-16 2 18 0 25 3 279
2013-11-17 0 13 0 28 5 091
2013-11-18 2 20 1 20 3 269
2013-11-19 3 25 1 16 4 107
2013-11-20 5 53 0 25 4 556
2013-11-21 0 33 0 26 4 719
2013-11-22 2 35 1 24 5 798
2013-11-23 0 39 0 21 13 713
2013-11-24 1 32 0 29 8 700
2013-11-25 0 14 0 27 3 856
2013-11-26 2 46 0 19 3 287
2013-11-27 1 46 0 19 4 243
2013-11-28 2 37 2 18 3 613
2013-11-29 2 30 1 17 3 673
2013-11-30 0 27 0 18 3 260
Octobre 2013 37 683 10 26 116 570
Septembre 2013 33 723 15 29 160 779
2013-09-01 0 57 0 19 3 222
2013-09-02 2 24 0 21 3 211
2013-09-03 1 22 0 19 3 225
2013-09-04 2 24 2 21 14 311
2013-09-05 1 19 0 17 22 207
2013-09-06 3 23 2 21 13 976
2013-09-07 1 51 2 24 20 435
2013-09-08 1 34 0 24 10 968
2013-09-09 0 22 0 18 2 939
2013-09-10 2 30 0 18 3 194
2013-09-11 1 27 1 18 2 264
2013-09-12 2 15 0 17 3 642
2013-09-13 0 12 0 19 3 775
2013-09-14 2 24 0 20 3 850
2013-09-15 0 22 1 19 2 626
2013-09-16 0 19 0 13 7 428
2013-09-17 1 29 2 16 3 178
2013-09-18 3 37 1 20 2 878
2013-09-19 0 26 0 25 3 592
2013-09-20 0 23 0 20 2 807
2013-09-21 1 8 0 18 2 488
2013-09-22 0 15 0 12 1 533
2013-09-23 0 22 1 23 2 729
2013-09-24 0 11 0 25 2 352
2013-09-25 2 32 1 29 3 227
2013-09-26 2 22 0 26 3 451
2013-09-27 1 26 2 19 3 427
2013-09-28 4 11 0 22 2 817
2013-09-29 1 16 0 12 1 720
2013-09-30 0 20 0 22 3 307
Août 2013 20 356 4 30 113 960
Juillet 2013 21 331 2 24 120 164
2013-07-01 0 9 0 24 4 330
2013-07-02 1 11 0 16 2 693
2013-07-03 4 28 0 23 4 775
2013-07-04 2 26 0 16 4 174
2013-07-05 0 16 0 20 4 074
2013-07-06 0 8 0 21 4 135
2013-07-07 1 6 0 17 2 726
2013-07-08 1 11 0 17 4 747
2013-07-09 0 9 0 18 3 831
2013-07-10 0 5 0 16 3 040
2013-07-11 1 6 0 19 4 713
2013-07-12 1 16 0 19 4 099
2013-07-13 0 3 0 14 4 400
2013-07-14 0 2 0 15 3 941
2013-07-15 0 2 0 15 3 367
2013-07-16 1 4 0 18 4 261
2013-07-17 2 23 0 22 3 788
2013-07-18 0 16 0 15 3 415
2013-07-19 1 2 0 16 2 111
2013-07-20 1 7 0 17 1 889
2013-07-21 0 5 0 18 4 035
2013-07-22 2 21 0 15 10 438
2013-07-23 0 9 1 18 4 311
2013-07-24 1 12 0 15 4 353
2013-07-25 1 15 0 24 3 021
2013-07-26 0 10 0 20 4 122
2013-07-27 1 12 0 12 2 914
2013-07-28 0 7 0 17 2 977
2013-07-29 0 13 0 19 2 352
2013-07-30 0 9 1 17 2 615
2013-07-31 0 8 0 18 4 517
Juin 2013 40 731 5 34 119 512
Mai 2013 34 881 3 47 157 484
Avril 2013 38 799 8 33 124 279
Mars 2013 40 1 111 9 62 147 762
Février 2013 32 838 5 79 125 299
Janvier 2013 41 898 5 89 138 494
2013-01-01 3 41 0 18 3 294
2013-01-02 0 40 0 32 4 176
2013-01-03 0 19 1 15 3 604
2013-01-04 1 25 1 37 4 312
2013-01-05 3 14 0 15 4 484
2013-01-06 4 45 0 18 3 481
2013-01-07 2 32 0 18 3 613
2013-01-08 2 17 0 22 3 963
2013-01-09 0 19 0 24 3 801
2013-01-10 1 31 0 18 3 318
2013-01-11 0 14 0 17 2 898
2013-01-12 1 23 0 41 3 129
2013-01-13 1 41 0 36 3 414
2013-01-14 1 28 0 41 3 865
2013-01-15 5 56 0 20 4 435
2013-01-16 1 33 0 39 4 394
2013-01-17 1 50 0 38 4 104
2013-01-18 0 17 0 31 4 143
2013-01-19 2 23 0 17 3 723
2013-01-20 2 24 0 22 4 177
2013-01-21 1 31 0 24 5 005
2013-01-22 0 15 1 19 3 874
2013-01-23 0 34 0 16 3 985
2013-01-24 4 34 0 21 4 457
2013-01-25 0 23 0 14 4 216
2013-01-26 0 13 0 63 7 035
2013-01-27 1 23 1 89 8 106
2013-01-28 0 38 0 55 6 946
2013-01-29 0 29 0 52 5 581
2013-01-30 1 30 1 54 6 998
2013-01-31 4 36 0 39 5 963
* 2012 446 10 690 67 157 1 274 957
Décembre 2012 57 1 411 4 45 150 137
Novembre 2012 46 1 137 8 25 112 399
Octobre 2012 45 1 068 7 25 80 970
2012-10-01 4 36 0 16 2 575
2012-10-02 0 19 0 16 2 057
2012-10-03 1 21 0 14 1 771
2012-10-04 1 15 0 25 2 211
2012-10-05 1 6 0 16 1 729
2012-10-06 0 3 0 14 1 339
2012-10-07 1 25 1 13 1 948
2012-10-08 0 43 0 14 3 370
2012-10-09 1 36 0 21 2 924
2012-10-10 2 46 0 17 2 361
2012-10-11 1 54 0 17 3 608
2012-10-12 0 22 0 16 1 810
2012-10-13 3 37 1 14 2 059
2012-10-14 2 57 1 21 2 843
2012-10-15 2 67 0 18 2 859
2012-10-16 0 35 0 17 2 927
2012-10-17 2 68 0 23 3 599
2012-10-18 1 42 1 20 2 644
2012-10-19 1 60 0 15 2 712
2012-10-20 1 18 1 15 2 052
2012-10-21 6 55 1 14 2 785
2012-10-22 2 43 0 16 2 612
2012-10-23 1 35 0 20 2 967
2012-10-24 1 22 0 16 2 174
2012-10-25 0 23 0 14 2 367
2012-10-26 0 25 0 13 2 731
2012-10-27 0 4 0 13 2 966
2012-10-28 3 43 1 19 4 497
2012-10-29 1 31 0 22 3 134
2012-10-30 5 43 0 17 2 931
2012-10-31 2 34 0 20 2 408
Septembre 2012 37 876 11 38 107 023
2012-09-01 0 8 1 16 2 575
2012-09-02 5 43 0 17 3 826
2012-09-03 2 46 0 23 3 659
2012-09-04 1 28 1 17 3 491
2012-09-05 1 45 0 20 3 793
2012-09-06 1 48 0 15 3 882
2012-09-07 0 23 0 17 3 089
2012-09-08 2 35 0 34 3 530
2012-09-09 2 20 1 15 3 371
2012-09-10 4 46 1 27 3 558
2012-09-11 3 41 1 15 3 139
2012-09-12 1 57 0 35 4 503
2012-09-13 0 15 0 38 4 800
2012-09-14 0 18 0 19 3 751
2012-09-15 0 4 0 25 3 135
2012-09-16 2 31 0 21 3 471
2012-09-17 1 51 0 20 3 662
2012-09-18 1 37 2 21 3 924
2012-09-19 0 20 0 22 4 623
2012-09-20 0 24 1 20 4 039
2012-09-21 1 31 1 23 4 071
2012-09-22 0 14 0 23 3 551
2012-09-23 1 14 0 21 3 462
2012-09-24 2 48 1 22 4 769
2012-09-25 4 39 1 23 3 691
2012-09-26 0 22 0 20 3 237
2012-09-27 0 21 0 25 3 229
2012-09-28 0 13 0 16 2 068
2012-09-29 2 16 0 15 1 970
2012-09-30 1 18 0 14 3 154
Août 2012 30 595 5 41 95 032
2012-08-01 1 10 0 13 3 408
2012-08-02 0 21 0 19 2 532
2012-08-03 0 19 0 15 2 650
2012-08-04 0 3 0 14 1 909
2012-08-05 0 5 0 12 1 913
2012-08-06 1 18 1 15 2 288
2012-08-07 0 13 0 15 2 613
2012-08-08 2 12 0 13 3 743
2012-08-09 1 27 0 14 3 247
2012-08-10 0 14 0 41 3 163
2012-08-11 2 20 1 20 2 655
2012-08-12 0 22 0 13 2 610
2012-08-13 2 54 1 18 3 586
2012-08-14 1 22 0 15 3 230
2012-08-15 1 15 0 15 2 618
2012-08-16 3 23 0 14 3 024
2012-08-17 0 7 0 19 3 643
2012-08-18 0 4 0 14 2 628
2012-08-19 3 17 0 16 3 017
2012-08-20 2 20 0 14 3 296
2012-08-21 0 12 1 16 3 643
2012-08-22 2 14 0 18 3 501
2012-08-23 0 26 0 17 3 497
2012-08-24 0 14 0 15 3 563
2012-08-25 0 23 0 16 3 262
2012-08-26 2 15 0 14 3 447
2012-08-27 1 23 0 13 3 342
2012-08-28 1 4 0 17 2 817
2012-08-29 2 22 0 20 3 476
2012-08-30 2 67 1 18 3 756
2012-08-31 1 29 0 29 2 955
Juillet 2012 24 563 2 157 78 638
Juin 2012 39 984 10 33 88 620
2012-06-01 0 22 0 22 2 768
2012-06-02 2 19 0 16 2 287
2012-06-03 2 49 1 20 2 991
2012-06-04 1 20 0 18 2 557
2012-06-05 0 18 0 25 2 088
2012-06-06 2 20 0 16 2 460
2012-06-07 1 31 1 22 3 106
2012-06-08 1 47 1 18 3 140
2012-06-09 2 34 1 21 2 277
2012-06-10 0 50 1 18 3 163
2012-06-11 3 54 0 16 2 912
2012-06-12 4 24 1 19 2 270
2012-06-13 3 26 0 33 2 675
2012-06-14 0 21 1 14 2 735
2012-06-15 0 14 0 16 2 910
2012-06-16 0 14 0 16 2 617
2012-06-17 1 12 0 16 3 557
2012-06-18 1 55 1 23 4 850
2012-06-19 2 39 0 20 3 959
2012-06-20 2 37 1 21 4 389
2012-06-21 1 26 0 21 3 322
2012-06-22 0 24 0 17 2 839
2012-06-23 1 35 0 15 2 885
2012-06-24 0 32 0 17 2 599
2012-06-25 1 51 0 20 3 408
2012-06-26 2 49 0 18 2 936
2012-06-27 3 22 1 23 2 275
2012-06-28 1 76 0 22 3 034
2012-06-29 1 32 0 18 2 424
2012-06-30 2 31 0 17 3 187
Mai 2012 22 703 5 26 77 701
2012-05-01 2 31 0 24 2 676
2012-05-02 2 37 0 16 2 377
2012-05-03 1 28 0 17 2 595
2012-05-04 0 32 0 17 2 833
2012-05-05 2 29 1 21 2 604
2012-05-06 0 26 0 19 3 019
2012-05-07 1 23 0 15 2 984
2012-05-08 1 21 0 15 2 018
2012-05-09 0 22 0 15 1 937
2012-05-10 3 29 1 26 2 194
2012-05-11 1 18 0 17 2 614
2012-05-12 0 25 0 18 2 467
2012-05-13 1 21 0 15 1 929
2012-05-14 0 19 0 15 2 270
2012-05-15 0 20 0 13 2 021
2012-05-16 2 19 1 20 1 978
2012-05-17 0 28 0 17 2 478
2012-05-18 1 11 0 13 2 280
2012-05-19 0 14 0 17 2 552
2012-05-20 0 12 0 20 2 256
2012-05-21 0 14 0 20 3 771
2012-05-22 1 14 0 17 1 888
2012-05-23 2 32 1 14 2 221
2012-05-24 0 39 1 16 2 279
2012-05-25 0 20 0 13 2 197
2012-05-26 0 11 0 12 2 044
2012-05-27 0 17 0 16 2 881
2012-05-28 0 19 0 13 2 192
2012-05-29 2 26 0 19 2 789
2012-05-30 0 14 0 19 4 625
2012-05-31 0 32 0 17 2 732
Avril 2012 33 714 4 33 95 151
Mars 2012 35 977 5 48 160 160
Février 2012 34 704 5 33 117 877
Janvier 2012 44 958 1 30 111 249
* 2011 822 21 877 118 48 1 861 895
Décembre 2011 68 1 315 7 36 141 929
Novembre 2011 94 1 539 4 36 150 015
Octobre 2011 81 1 597 13 41 169 207
Septembre 2011 96 1 991 19 24 158 540
2011-09-01 1 105 0 18 4 820
2011-09-02 0 44 0 17 3 692
2011-09-03 0 35 0 16 3 065
2011-09-04 1 39 1 18 3 341
2011-09-05 4 67 1 21 3 815
2011-09-06 0 37 0 12 5 171
2011-09-07 2 64 2 17 7 762
2011-09-08 2 83 0 23 7 440
2011-09-09 0 103 0 20 8 363
2011-09-10 0 27 0 15 6 046
2011-09-11 11 96 0 24 5 135
2011-09-12 6 137 1 18 5 300
2011-09-13 18 102 0 19 6 004
2011-09-14 5 57 0 22 4 369
2011-09-15 2 43 0 15 3 469
2011-09-16 3 88 0 18 5 547
2011-09-17 1 43 2 19 4 640
2011-09-18 4 42 2 21 5 991
2011-09-19 2 80 0 18 5 773
2011-09-20 4 66 1 22 6 364
2011-09-21 8 83 0 21 5 960
2011-09-22 1 47 2 20 4 972
2011-09-23 2 43 0 18 4 346
2011-09-24 2 44 0 23 3 841
2011-09-25 2 62 3 20 4 963
2011-09-26 1 65 0 19 4 935
2011-09-27 6 66 3 19 4 561
2011-09-28 3 108 1 21 5 839
2011-09-29 5 77 0 18 7 139
2011-09-30 0 38 0 15 5 877
Août 2011 68 1 372 16 48 135 201
2011-08-01 1 53 3 16 3 486
2011-08-02 2 33 2 18 3 048
2011-08-03 0 24 0 18 2 915
2011-08-04 3 25 0 16 2 649
2011-08-05 2 35 0 20 3 005
2011-08-06 0 17 0 15 2 618
2011-08-07 2 23 0 12 3 445
2011-08-08 2 63 0 15 3 465
2011-08-09 1 29 0 21 2 868
2011-08-10 1 35 0 22 2 729
2011-08-11 2 42 0 17 2 980
2011-08-12 1 57 0 21 3 655
2011-08-13 1 15 0 12 1 914
2011-08-14 3 11 0 16 2 022
2011-08-15 3 26 0 18 3 670
2011-08-16 2 32 0 11 9 114
2011-08-17 6 40 0 18 8 629
2011-08-18 4 50 0 29 6 811
2011-08-19 1 27 0 14 4 955
2011-08-20 0 16 0 13 2 768
2011-08-21 1 20 2 16 2 731
2011-08-22 2 76 1 15 4 951
2011-08-23 1 73 1 20 7 172
2011-08-24 1 36 1 23 5 952
2011-08-25 6 106 1 16 7 246
2011-08-26 5 112 2 23 8 570
2011-08-27 2 52 0 19 5 138
2011-08-28 4 46 1 13 3 457
2011-08-29 3 83 0 18 4 851
2011-08-30 1 48 1 18 4 507
2011-08-31 5 67 1 48 3 880
Juillet 2011 57 1 156 10 30 112 626
2011-07-01 2 18 0 21 5 455
2011-07-02 5 34 1 13 3 807
2011-07-03 0 47 1 29 3 624
2011-07-04 3 75 1 23 5 753
2011-07-05 1 54 1 17 5 269
2011-07-06 1 25 0 17 4 105
2011-07-07 0 25 0 30 3 217
2011-07-08 3 74 0 17 4 521
2011-07-09 8 29 1 18 2 897
2011-07-10 1 54 0 21 5 965
2011-07-11 3 38 2 18 4 473
2011-07-12 2 66 0 14 3 417
2011-07-13 5 73 0 19 3 850
2011-07-14 0 38 0 15 3 112
2011-07-15 0 29 0 17 2 768
2011-07-16 1 17 0 21 4 404
2011-07-17 0 18 0 15 4 901
2011-07-18 1 25 0 18 2 740
2011-07-19 1 15 0 14 2 640
2011-07-20 1 48 0 20 3 211
2011-07-21 2 24 1 15 2 768
2011-07-22 2 46 0 17 3 321
2011-07-23 1 24 1 12 2 352
2011-07-24 8 31 0 15 2 544
2011-07-25 3 56 0 19 3 247
2011-07-26 1 31 1 12 3 398
2011-07-27 1 35 0 19 3 127
2011-07-28 0 28 0 24 3 297
2011-07-29 0 28 0 16 2 641
2011-07-30 0 12 0 17 2 551
2011-07-31 1 39 0 17 3 251
Juin 2011 40 1 214 6 31 149 115
Mai 2011 64 1 997 8 39 181 997
2011-05-01 1 44 0 21 3 800
2011-05-02 2 97 0 21 4 247
2011-05-03 2 60 0 15 3 949
2011-05-04 2 57 0 22 4 174
2011-05-05 2 87 0 29 4 101
2011-05-06 1 46 0 19 3 293
2011-05-07 3 21 0 31 5 860
2011-05-08 1 13 1 29 6 061
2011-05-09 2 62 1 26 7 057
2011-05-10 3 117 1 32 13 635
2011-05-11 0 70 0 33 8 213
2011-05-12 4 99 0 39 6 910
2011-05-13 3 60 0 27 5 773
2011-05-14 3 45 1 23 4 456
2011-05-15 1 55 0 26 5 530
2011-05-16 1 73 0 34 6 924
2011-05-17 0 96 0 25 5 617
2011-05-18 4 144 0 29 7 640
2011-05-19 2 91 0 34 8 906
2011-05-20 1 45 0 28 5 778
2011-05-21 0 21 0 38 5 753
2011-05-22 1 55 0 29 6 481
2011-05-23 7 130 0 23 10 799
2011-05-24 1 41 0 28 4 569
2011-05-25 3 51 0 34 6 528
2011-05-26 0 71 2 24 4 490
2011-05-27 1 49 1 18 3 249
2011-05-28 0 36 0 14 2 868
2011-05-29 7 31 0 23 4 945
2011-05-30 3 76 0 28 5 514
2011-05-31 3 54 1 25 4 877
Avril 2011 46 1 637 9 38 176 986
Mars 2011 54 2 388 6 31 211 307
2011-03-01 3 122 0 18 6 680
2011-03-02 2 125 0 22 7 771
2011-03-03 2 101 0 20 6 758
2011-03-04 1 42 0 17 4 167
2011-03-05 3 23 0 20 4 811
2011-03-06 1 22 0 18 6 699
2011-03-07 1 42 1 17 6 565
2011-03-08 1 37 0 15 7 116
2011-03-09 1 39 0 16 10 831
2011-03-10 3 77 0 15 19 804
2011-03-11 2 61 0 19 12 773
2011-03-12 4 51 1 16 5 555
2011-03-13 4 68 0 15 5 274
2011-03-14 2 115 0 16 5 003
2011-03-15 1 92 0 17 6 428
2011-03-16 3 212 1 21 9 712
2011-03-17 0 120 1 19 5 516
2011-03-18 0 109 0 19 3 950
2011-03-19 1 32 0 16 3 488
2011-03-20 0 56 0 20 3 576
2011-03-21 1 81 0 15 6 916
2011-03-22 1 58 0 30 6 314
2011-03-23 2 95 0 19 8 455
2011-03-24 3 147 0 19 6 592
2011-03-25 0 66 0 22 9 114
2011-03-26 1 15 0 21 4 424
2011-03-27 0 24 0 31 4 299
2011-03-28 3 77 0 28 5 137
2011-03-29 3 92 1 26 4 709
2011-03-30 4 104 1 25 5 221
2011-03-31 1 83 0 28 7 649
Février 2011 59 2 656 5 46 128 248
Janvier 2011 95 3 015 15 44 146 724
2011-01-01 4 28 1 33 3 209
2011-01-02 3 53 0 27 3 194
2011-01-03 4 120 0 23 4 999
2011-01-04 4 123 0 25 4 781
2011-01-05 2 129 0 36 4 810
2011-01-06 3 97 1 27 4 554
2011-01-07 0 98 0 25 4 909
2011-01-08 1 28 1 20 3 049
2011-01-09 3 61 0 20 3 543
2011-01-10 3 87 0 36 4 897
2011-01-11 1 79 1 25 4 007
2011-01-12 2 149 0 34 5 515
2011-01-13 6 143 3 40 5 584
2011-01-14 5 244 0 29 8 061
2011-01-15 1 41 0 36 4 401
2011-01-16 9 38 0 23 3 832
2011-01-17 2 153 0 44 6 302
2011-01-18 4 85 0 32 5 425
2011-01-19 4 92 0 29 4 997
2011-01-20 5 99 1 25 4 295
2011-01-21 3 75 0 30 4 089
2011-01-22 3 45 1 32 3 479
2011-01-23 1 85 1 32 4 851
2011-01-24 1 79 0 35 4 531
2011-01-25 2 98 0 30 5 112
2011-01-26 4 137 3 25 5 274
2011-01-27 1 118 0 27 5 128
2011-01-28 4 130 1 32 5 328
2011-01-29 1 78 0 25 4 103
2011-01-30 2 58 0 33 3 935
2011-01-31 7 165 1 33 6 530
* 2010 615 23 079 70 91 1 409 620
Décembre 2010 54 2 635 5 43 199 984
Novembre 2010 59 2 475 6 49 127 779
Octobre 2010 56 2 811 15 58 134 942
Septembre 2010 53 1 528 8 29 95 249
Août 2010 32 1 287 6 33 89 617
2010-08-01 2 44 0 14 2 375
2010-08-02 1 72 0 19 3 526
2010-08-03 2 81 0 33 3 516
2010-08-04 0 87 0 21 2 742
2010-08-05 0 80 0 17 3 348
2010-08-06 2 149 0 20 3 946
2010-08-07 1 29 1 17 2 159
2010-08-08 1 27 0 16 2 369
2010-08-09 3 52 0 20 2 680
2010-08-10 0 52 0 15 3 070
2010-08-11 2 38 0 21 4 295
2010-08-12 1 36 0 18 2 513
2010-08-13 0 15 0 15 2 131
2010-08-14 0 10 1 8 6 123
2010-08-15 0 5 1 10 2 220
2010-08-16 2 21 0 12 2 503
2010-08-17 0 12 0 13 2 212
2010-08-18 0 17 0 12 2 490
2010-08-19 0 24 0 11 2 741
2010-08-20 2 30 0 22 3 123
2010-08-21 1 20 0 13 2 077
2010-08-22 2 35 0 12 1 743
2010-08-23 3 43 0 16 2 815
2010-08-24 1 41 0 17 3 088
2010-08-25 0 47 0 14 2 711
2010-08-26 1 61 0 16 2 920
2010-08-27 2 37 0 15 3 274
2010-08-28 0 20 0 9 1 779
2010-08-29 0 16 1 14 2 423
2010-08-30 1 32 0 17 3 130
2010-08-31 2 54 2 15 3 575
Juillet 2010 34 1 637 5 32 97 290
Juin 2010 46 2 137 3 28 109 648
2010-06-01 0 68 0 21 3 537
2010-06-02 1 57 0 17 3 123
2010-06-03 1 75 0 15 4 006
2010-06-04 0 85 0 20 3 645
2010-06-05 0 34 0 20 2 486
2010-06-06 3 30 0 17 2 856
2010-06-07 2 86 0 22 10 278
2010-06-08 0 64 0 18 5 044
2010-06-09 4 159 1 23 4 282
2010-06-10 2 122 0 19 3 974
2010-06-11 2 64 0 23 3 155
2010-06-12 1 20 0 16 3 002
2010-06-13 1 34 0 22 2 837
2010-06-14 1 34 0 25 3 405
2010-06-15 1 74 0 25 3 620
2010-06-16 0 98 0 28 4 159
2010-06-17 1 119 0 23 4 270
2010-06-18 3 81 0 19 3 422
2010-06-19 1 50 0 23 2 451
2010-06-20 1 22 0 19 2 286
2010-06-21 5 64 0 20 2 985
2010-06-22 2 99 1 23 3 730
2010-06-23 2 99 0 23 4 043
2010-06-24 4 128 1 18 4 041
2010-06-25 1 78 0 19 3 593
2010-06-26 0 6 0 15 2 050
2010-06-27 1 31 0 18 2 375
2010-06-28 4 99 0 21 3 892
2010-06-29 0 67 0 20 3 134
2010-06-30 2 90 0 23 3 967
Mai 2010 50 1 497 6 28 99 050
2010-05-01 1 32 0 21 2 421
2010-05-02 3 74 0 19 3 038
2010-05-03 8 104 1 18 3 744
2010-05-04 2 85 3 21 4 178
2010-05-05 0 40 0 17 3 300
2010-05-06 1 42 0 23 2 824
2010-05-07 0 73 0 18 3 255
2010-05-08 1 44 0 15 3 488
2010-05-09 1 41 0 15 3 389
2010-05-10 1 68 0 19 3 933
2010-05-11 1 48 0 22 5 245
2010-05-12 0 29 0 26 3 746
2010-05-13 0 7 0 18 2 614
2010-05-14 2 27 0 20 2 765
2010-05-15 0 19 0 19 2 419
2010-05-16 2 18 0 16 2 298
2010-05-17 0 57 1 15 3 088
2010-05-18 3 32 0 19 2 709
2010-05-19 1 31 0 19 2 946
2010-05-20 1 29 0 25 2 781
2010-05-21 3 39 0 18 2 646
2010-05-22 0 19 0 21 2 436
2010-05-23 2 20 0 20 2 475
2010-05-24 1 27 0 19 2 780
2010-05-25 5 104 0 19 4 022
2010-05-26 3 91 0 18 3 752
2010-05-27 1 50 0 17 3 010
2010-05-28 2 50 0 28 3 237
2010-05-29 1 43 0 20 3 063
2010-05-30 2 50 1 18 2 987
2010-05-31 2 104 0 25 4 461
Avril 2010 45 1 888 3 26 102 219
Mars 2010 53 1 534 2 46 118 201
2010-03-01 2 57 0 30 3 808
2010-03-02 1 43 0 28 3 278
2010-03-03 1 50 0 25 3 337
2010-03-04 1 45 0 29 2 857
2010-03-05 2 45 0 23 2 770
2010-03-06 0 15 1 22 3 117
2010-03-07 3 37 1 27 3 446
2010-03-08 2 103 0 29 4 766
2010-03-09 4 45 0 30 3 965
2010-03-10 1 57 0 29 4 220
2010-03-11 1 71 0 36 4 632
2010-03-12 0 25 0 30 4 266
2010-03-13 4 54 0 32 4 286
2010-03-14 1 46 0 16 4 716
2010-03-15 2 68 0 35 4 863
2010-03-16 0 24 0 29 4 037
2010-03-17 3 52 0 26 4 054
2010-03-18 2 43 0 25 3 982
2010-03-19 0 43 0 46 4 350
2010-03-20 1 24 0 28 3 099
2010-03-21 4 43 0 27 3 413
2010-03-22 6 57 0 19 3 536
2010-03-23 2 73 0 16 3 468
2010-03-24 1 69 0 24 3 359
2010-03-25 1 37 0 19 3 480
2010-03-26 0 40 0 21 3 801
2010-03-27 0 21 0 16 2 808
2010-03-28 2 34 0 17 3 354
2010-03-29 3 83 0 15 4 329
2010-03-30 1 60 0 19 3 857
2010-03-31 2 70 0 21 4 947
Février 2010 65 1 574 4 91 117 274
Janvier 2010 68 2 076 7 43 118 367
* 2009 752 28 223 96 159 970 278
Décembre 2009 39 2 001 5 54 122 418
Novembre 2009 59 3 138 6 38 117 432
2009-11-01 7 196 0 17 6 083
2009-11-02 2 154 0 14 6 193
2009-11-03 2 113 0 15 3 925
2009-11-04 0 146 1 38 7 391
2009-11-05 3 99 1 16 3 845
2009-11-06 0 175 0 16 4 535
2009-11-07 3 92 0 15 2 601
2009-11-08 2 60 0 13 3 016
2009-11-09 2 122 0 12 3 868
2009-11-10 4 94 0 14 3 306
2009-11-11 3 51 1 18 2 852
2009-11-12 2 124 0 23 4 388
2009-11-13 2 103 0 25 3 769
2009-11-14 1 75 0 14 3 015
2009-11-15 2 111 0 14 3 780
2009-11-16 2 94 1 12 3 545
2009-11-17 3 109 0 20 4 594
2009-11-18 1 90 0 13 3 336
2009-11-19 0 74 0 12 2 917
2009-11-20 3 90 1 15 3 725
2009-11-21 0 42 0 13 2 561
2009-11-22 5 110 0 13 3 924
2009-11-23 1 130 0 13 4 408
2009-11-24 1 104 0 26 4 201
2009-11-25 0 121 0 26 4 382
2009-11-26 2 116 0 15 4 153
2009-11-27 1 136 0 18 3 894
2009-11-28 1 54 0 12 2 637
2009-11-29 3 69 1 15 2 874
2009-11-30 1 84 0 16 3 714
Octobre 2009 67 3 218 11 18 122 232
2009-10-01 0 76 0 11 2 516
2009-10-02 1 64 0 10 2 579
2009-10-03 2 101 0 11 2 851
2009-10-04 1 126 0 12 3 520
2009-10-05 4 87 0 15 3 448
2009-10-06 5 84 0 13 3 357
2009-10-07 3 120 1 11 3 765
2009-10-08 3 194 0 14 4 579
2009-10-09 0 85 0 11 2 918
2009-10-10 3 88 1 11 2 279
2009-10-11 4 158 1 12 4 547
2009-10-12 3 160 0 13 4 399
2009-10-13 4 115 1 16 3 779
2009-10-14 1 84 0 13 3 531
2009-10-15 0 71 0 14 3 213
2009-10-16 0 67 0 17 11 597
2009-10-17 1 50 0 17 3 148
2009-10-18 0 67 1 16 4 508
2009-10-19 4 165 1 18 5 455
2009-10-20 0 85 0 14 3 066
2009-10-21 3 105 1 12 4 822
2009-10-22 2 99 1 13 3 611
2009-10-23 2 108 0 15 3 666
2009-10-24 1 67 1 12 2 884
2009-10-25 1 79 0 15 3 733
2009-10-26 3 100 1 13 3 989
2009-10-27 5 143 0 15 4 733
2009-10-28 0 60 1 12 2 921
2009-10-29 1 120 0 14 3 964
2009-10-30 4 193 0 17 4 507
2009-10-31 6 97 0 15 4 347
Septembre 2009 73 2 730 14 159 92 082
Août 2009 47 1 405 8 15 61 919
2009-08-01 2 39 0 13 1 336
2009-08-02 0 69 0 11 2 391
2009-08-03 1 44 0 11 1 874
2009-08-04 3 65 0 11 2 245
2009-08-05 2 48 0 10 1 649
2009-08-06 0 16 0 11 1 298
2009-08-07 0 47 1 8 1 823
2009-08-08 3 37 1 9 1 618
2009-08-09 0 29 0 7 1 656
2009-08-10 1 38 0 10 1 645
2009-08-11 0 24 0 9 1 552
2009-08-12 1 31 0 10 1 570
2009-08-13 0 11 0 10 1 503
2009-08-14 1 28 1 14 1 375
2009-08-15 1 28 0 8 1 978
2009-08-16 1 18 0 8 1 403
2009-08-17 2 52 0 11 2 044
2009-08-18 1 25 0 8 1 776
2009-08-19 0 29 0 15 3 027
2009-08-20 1 26 0 9 2 534
2009-08-21 1 30 0 10 1 626
2009-08-22 0 30 0 8 1 511
2009-08-23 3 54 0 10 2 054
2009-08-24 1 58 0 9 2 545
2009-08-25 0 37 0 15 1 903
2009-08-26 4 41 1 10 1 582
2009-08-27 4 160 2 10 3 765
2009-08-28 5 90 2 10 2 501
2009-08-29 1 72 0 14 2 703
2009-08-30 2 43 0 10 2 157
2009-08-31 6 86 0 12 3 275
Juillet 2009 68 1 737 11 21 67 267
Juin 2009 63 2 759 4 37 72 789
Mai 2009 46 2 166 6 16 66 386
Avril 2009 101 2 850 6 16 73 303
2009-04-01 3 166 1 14 3 669
2009-04-02 1 193 0 11 4 316
2009-04-03 1 125 1 11 2 873
2009-04-04 0 28 1 16 1 192
2009-04-05 0 23 0 9 1 660
2009-04-06 2 85 0 10 2 211
2009-04-07 5 106 0 14 2 655
2009-04-08 0 63 0 10 2 215
2009-04-09 2 119 0 14 2 827
2009-04-10 2 67 0 12 3 232
2009-04-11 0 27 0 9 1 101
2009-04-12 3 47 0 9 1 431
2009-04-13 3 98 1 9 2 738
2009-04-14 4 78 0 10 2 286
2009-04-15 3 108 0 10 2 870
2009-04-16 3 81 0 11 2 229
2009-04-17 0 92 0 12 2 534
2009-04-18 2 24 0 6 1 168
2009-04-19 2 68 0 10 1 951
2009-04-20 8 173 0 11 3 260
2009-04-21 4 205 0 15 3 878
2009-04-22 1 65 0 9 2 011
2009-04-23 0 115 0 11 2 136
2009-04-24 32 152 0 13 3 302
2009-04-25 2 37 1 12 1 453
2009-04-26 5 110 0 9 2 132
2009-04-27 0 112 0 12 2 669
2009-04-28 3 105 0 11 2 478
2009-04-29 4 103 1 12 2 554
2009-04-30 6 75 0 11 2 272
Mars 2009 80 3 538 7 17 83 610
Février 2009 57 1 586 6 16 50 521
2009-02-01 3 79 0 10 1 938
2009-02-02 2 66 0 11 2 491
2009-02-03 2 62 1 13 2 112
2009-02-04 2 48 0 12 1 911
2009-02-05 1 54 0 10 1 840
2009-02-06 0 42 1 9 1 456
2009-02-07 1 13 0 6 1 032
2009-02-08 5 69 1 9 1 650
2009-02-09 3 48 0 10 1 590
2009-02-10 2 56 0 8 1 453
2009-02-11 1 38 1 9 1 697
2009-02-12 2 30 0 8 1 354
2009-02-13 3 52 1 12 1 429
2009-02-14 1 29 0 11 988
2009-02-15 2 41 0 8 1 595
2009-02-16 2 62 0 10 2 271
2009-02-17 1 44 0 10 1 926
2009-02-18 1 62 0 10 2 139
2009-02-19 5 89 0 12 2 304
2009-02-20 1 66 0 12 2 066
2009-02-21 0 41 0 9 1 177
2009-02-22 6 58 0 11 1 838
2009-02-23 2 67 0 10 1 907
2009-02-24 1 64 0 12 2 219
2009-02-25 1 85 0 16 2 446
2009-02-26 2 76 0 12 2 117
2009-02-27 1 82 0 11 2 035
2009-02-28 4 63 1 10 1 540
Janvier 2009 52 1 095 12 10 40 319
* 2008 334 4 655 56 26 234 055
Décembre 2008 36 663 7 12 28 104
2008-12-01 3 30 0 10 1 312
2008-12-02 0 30 0 7 1 279
2008-12-03 3 41 0 12 1 017
2008-12-04 2 33 0 7 1 133
2008-12-05 2 40 1 7 1 117
2008-12-06 0 7 0 5 831
2008-12-07 1 21 0 5 1 053
2008-12-08 1 30 0 8 1 116
2008-12-09 2 39 0 8 1 045
2008-12-10 0 13 0 6 555
2008-12-11 1 29 2 8 1 021
2008-12-12 0 29 1 9 1 230
2008-12-13 2 32 0 11 1 196
2008-12-14 3 17 1 8 973
2008-12-15 1 21 0 9 868
2008-12-16 3 51 1 9 1 403
2008-12-17 0 19 1 7 950
2008-12-18 1 7 0 10 889
2008-12-19 0 26 0 8 1 051
2008-12-20 2 19 0 8 964
2008-12-21 2 20 0 5 722
2008-12-22 0 10 0 5 689
2008-12-23 0 22 0 8 909
2008-12-24 0 8 0 4 427
2008-12-25 0 11 0 5 344
2008-12-26 2 17 0 6 566
2008-12-27 0 2 0 5 628
2008-12-28 1 8 0 5 684
2008-12-29 1 9 0 5 880
2008-12-30 1 8 0 5 575
2008-12-31 2 14 0 6 677
Novembre 2008 51 1 090 9 10 35 948
Octobre 2008 50 609 5 10 26 582
Septembre 2008 40 619 5 10 24 365
2008-09-01 0 6 0 7 539
2008-09-02 2 16 0 0 576
2008-09-03 1 13 0 5 857
2008-09-04 1 9 0 6 627
2008-09-05 1 15 0 7 829
2008-09-06 1 7 0 6 671
2008-09-07 1 17 0 4 1 181
2008-09-08 5 29 0 6 1 459
2008-09-09 0 2 0 5 741
2008-09-10 1 9 0 5 540
2008-09-11 0 7 0 6 574
2008-09-12 2 27 0 7 779
2008-09-13 0 11 0 6 602
2008-09-14 0 5 0 6 478
2008-09-15 6 28 1 6 990
2008-09-16 1 15 0 6 639
2008-09-17 0 26 1 7 1 061
2008-09-18 1 14 0 6 720
2008-09-19 1 16 0 6 620
2008-09-20 0 9 0 5 403
2008-09-21 2 17 2 6 630
2008-09-22 0 32 0 7 887
2008-09-23 1 22 0 10 697
2008-09-24 3 54 0 10 1 244
2008-09-25 3 27 0 7 873
2008-09-26 1 23 0 6 770
2008-09-27 0 21 0 8 670
2008-09-28 2 35 0 7 911
2008-09-29 2 57 0 6 1 560
2008-09-30 2 50 1 9 1 237
Août 2008 28 252 6 9 21 916
2008-08-01 1 3 0 6 643
2008-08-02 1 7 1 4 575
2008-08-03 0 1 0 3 335
2008-08-04 1 9 0 8 348
2008-08-05 0 1 0 2 341
2008-08-06 1 6 0 5 362
2008-08-07 2 10 0 5 392
2008-08-08 0 5 0 3 492
2008-08-09 0 9 0 4 352
2008-08-10 0 5 0 4 379
2008-08-11 3 9 1 5 574
2008-08-12 1 10 0 9 785
2008-08-13 0 5 0 3 614
2008-08-14 0 6 0 3 300
2008-08-15 0 7 0 7 1 149
2008-08-16 0 5 0 5 2 200
2008-08-17 1 2 1 3 676
2008-08-18 2 12 0 6 505
2008-08-19 1 10 0 6 559
2008-08-20 0 16 0 4 441
2008-08-21 0 7 1 5 515
2008-08-22 6 27 0 6 789
2008-08-23 1 4 0 7 566
2008-08-24 1 3 0 5 765
2008-08-25 1 14 0 6 707
2008-08-26 0 7 0 8 778
2008-08-27 3 14 1 5 847
2008-08-28 0 6 0 5 701
2008-08-29 0 10 0 8 1 349
2008-08-30 0 2 0 5 1 714
2008-08-31 2 20 1 9 1 163
Juillet 2008 20 256 5 7 16 733
2008-07-01 1 11 0 5 499
2008-07-02 0 6 1 3 428
2008-07-03 1 15 0 7 504
2008-07-04 0 11 0 0 562
2008-07-05 0 3 1 5 416
2008-07-06 2 8 0 4 518
2008-07-07 0 6 0 5 766
2008-07-08 1 7 0 5 391
2008-07-09 2 18 0 5 586
2008-07-10 0 9 0 4 473
2008-07-11 0 5 0 0 440
2008-07-12 0 0 0 3 232
2008-07-13 0 2 0 2 270
2008-07-14 0 2 0 3 291
2008-07-15 2 10 0 4 395
2008-07-16 0 6 0 5 497
2008-07-17 1 12 0 4 772
2008-07-18 0 8 1 5 640
2008-07-19 1 6 0 4 328
2008-07-20 0 4 0 4 336
2008-07-21 1 12 1 5 586
2008-07-22 3 17 0 5 650
2008-07-23 0 9 0 4 678
2008-07-24 2 9 1 5 1 046
2008-07-25 0 2 0 0 497
2008-07-26 0 4 0 5 493
2008-07-27 1 10 0 6 1 290
2008-07-28 1 13 0 4 446
2008-07-29 0 11 0 3 514
2008-07-30 0 12 0 5 698
2008-07-31 1 8 0 0 491
Juin 2008 17 363 6 26 18 903
2008-06-01 1 5 0 4 292
2008-06-02 0 5 0 0 275
2008-06-03 1 18 0 0 394
2008-06-04 1 12 0 5 364
2008-06-05 0 20 0 5 515
2008-06-06 0 9 0 5 345
2008-06-07 1 9 0 3 329
2008-06-08 0 6 0 4 483
2008-06-09 0 6 0 4 293
2008-06-10 1 4 0 26 378
2008-06-11 1 5 0 3 352
2008-06-12 0 3 0 3 313
2008-06-13 0 2 0 0 459
2008-06-14 3 6 2 5 745
2008-06-15 0 5 0 4 1 117
2008-06-16 0 26 0 6 920
2008-06-17 1 24 1 6 870
2008-06-18 1 36 0 6 1 390
2008-06-19 0 33 0 6 1 026
2008-06-20 1 31 1 6 1 005
2008-06-21 0 19 0 5 1 268
2008-06-22 0 3 0 3 453
2008-06-23 0 1 0 6 520
2008-06-24 0 7 0 5 332
2008-06-25 3 25 1 8 752
2008-06-26 1 22 0 5 752
2008-06-27 0 8 0 5 928
2008-06-28 0 4 1 4 1 001
2008-06-29 1 4 0 8 610
2008-06-30 0 5 0 5 422
Mai 2008 17 180 2 10 13 320
2008-05-01 0 2 0 3 298
2008-05-02 0 7 0 3 301
2008-05-03 0 2 0 3 238
2008-05-04 0 2 0 4 802
2008-05-05 1 4 0 3 331
2008-05-06 0 6 0 0 392
2008-05-07 0 2 0 4 358
2008-05-08 0 1 0 2 277
2008-05-09 0 5 1 4 290
2008-05-10 0 2 0 3 288
2008-05-11 1 2 0 2 369
2008-05-12 1 6 0 5 569
2008-05-13 1 10 0 5 595
2008-05-14 0 16 1 4 626
2008-05-15 3 13 0 0 742
2008-05-16 0 7 0 5 526
2008-05-17 1 7 0 5 478
2008-05-18 0 3 0 4 760
2008-05-19 0 4 0 4 495
2008-05-20 1 5 0 3 347
2008-05-21 0 12 0 4 459
2008-05-22 0 4 0 5 505
2008-05-23 0 3 0 3 360
2008-05-24 1 8 0 4 308
2008-05-25 0 5 0 2 261
2008-05-26 0 7 0 3 260
2008-05-27 0 3 0 10 398
2008-05-28 3 8 0 7 411
2008-05-29 0 5 0 5 350
2008-05-30 1 9 0 0 574
2008-05-31 3 10 0 5 352
Avril 2008 16 146 3 8 16 063
Mars 2008 18 158 1 9 12 835
2008-03-01 0 0 0 4 340
2008-03-02 2 5 0 0 302
2008-03-03 1 2 0 5 326
2008-03-04 0 2 0 5 294
2008-03-05 1 4 0 3 278
2008-03-06 2 16 0 5 449
2008-03-07 0 14 0 4 449
2008-03-08 1 4 0 0 354
2008-03-09 3 11 0 7 535
2008-03-10 0 2 0 0 368
2008-03-11 1 10 1 7 495
2008-03-12 0 6 0 5 471
2008-03-13 1 5 0 5 382
2008-03-14 0 10 0 7 498
2008-03-15 0 3 0 0 356
2008-03-16 0 4 0 4 344
2008-03-17 0 4 0 6 392
2008-03-18 0 0 0 0 304
2008-03-19 0 6 0 4 239
2008-03-20 0 4 0 3 192
2008-03-21 0 7 0 7 261
2008-03-22 0 0 0 4 319
2008-03-23 3 6 0 4 365
2008-03-24 1 10 0 6 495
2008-03-25 1 7 0 6 353
2008-03-26 0 3 0 3 375
2008-03-27 0 1 0 5 223
2008-03-28 0 2 0 6 979
2008-03-29 0 3 0 3 855
2008-03-30 0 0 0 7 632
2008-03-31 1 7 0 9 610
Février 2008 19 155 2 9 9 679
Janvier 2008 22 164 5 7 9 607
* 2007 276 2 246 55 9 102 999
Décembre 2007 21 167 5 8 17 081
2007-12-01 0 1 0 4 239
2007-12-02 0 2 0 4 264
2007-12-03 1 5 0 4 262
2007-12-04 0 1 0 4 266
2007-12-05 0 0 0 3 201
2007-12-06 0 2 0 4 226
2007-12-07 0 12 0 0 371
2007-12-08 1 3 0 4 451
2007-12-09 2 8 0 4 2 230
2007-12-10 2 13 1 5 405
2007-12-11 0 5 1 4 312
2007-12-12 1 10 0 4 317
2007-12-13 0 2 0 0 258
2007-12-14 1 7 0 4 254
2007-12-15 2 6 0 3 303
2007-12-16 0 4 0 3 248
2007-12-17 1 6 0 4 267
2007-12-18 0 1 0 0 233
2007-12-19 2 7 0 3 285
2007-12-20 0 4 1 0 262
2007-12-21 0 3 1 8 313
2007-12-22 4 12 0 5 568
2007-12-23 0 10 0 4 406
2007-12-24 1 7 1 3 4 210
2007-12-25 1 9 0 3 296
2007-12-26 0 11 0 5 383
2007-12-27 0 5 0 4 331
2007-12-28 1 6 0 0 326
2007-12-29 1 1 0 0 221
2007-12-30 0 1 0 2 2 196
2007-12-31 0 3 0 2 177
Novembre 2007 20 168 3 6 8 467
Octobre 2007 21 147 4 5 8 193
Septembre 2007 22 183 4 9 9 896
2007-09-01 1 6 0 4 255
2007-09-02 1 7 1 3 302
2007-09-03 2 13 0 5 572
2007-09-04 1 15 1 9 508
2007-09-05 1 4 1 7 396
2007-09-06 1 23 0 6 618
2007-09-07 1 9 1 0 426
2007-09-08 0 5 0 4 308
2007-09-09 0 2 0 5 280
2007-09-10 1 8 0 0 334
2007-09-11 5 17 0 6 584
2007-09-12 0 3 0 7 335
2007-09-13 0 2 0 8 430
2007-09-14 0 3 0 3 253
2007-09-15 0 1 0 2 169
2007-09-16 0 0 0 3 139
2007-09-17 0 3 0 4 258
2007-09-18 0 1 0 5 289
2007-09-19 1 8 0 4 366
2007-09-20 1 4 0 3 258
2007-09-21 1 5 0 3 285
2007-09-22 0 5 0 7 259
2007-09-23 1 2 0 3 272
2007-09-24 0 8 0 4 304
2007-09-25 1 3 0 3 367
2007-09-26 1 5 0 4 246
2007-09-27 0 2 0 4 261
2007-09-28 0 4 0 4 291
2007-09-29 2 11 0 4 373
2007-09-30 0 4 0 0 158
Août 2007 23 226 2 6 9 096
2007-08-01 1 11 0 0 281
2007-08-02 0 4 0 4 224
2007-08-03 2 13 1 0 357
2007-08-04 0 5 0 3 265
2007-08-05 0 0 0 1 129
2007-08-06 1 1 0 2 171
2007-08-07 1 2 0 0 211
2007-08-08 0 0 0 2 132
2007-08-09 1 3 0 2 133
2007-08-10 0 1 0 2 177
2007-08-11 0 0 0 2 104
2007-08-12 0 0 0 3 97
2007-08-13 0 3 0 3 220
2007-08-14 0 0 0 3 199
2007-08-15 0 0 0 0 163
2007-08-16 1 4 0 2 166
2007-08-17 0 6 0 5 274
2007-08-18 0 3 1 3 274
2007-08-19 1 4 0 3 258
2007-08-20 1 14 0 4 417
2007-08-21 2 9 0 3 352
2007-08-22 1 18 0 3 434
2007-08-23 1 12 0 4 412
2007-08-24 0 7 0 6 267
2007-08-25 0 7 0 5 265
2007-08-26 2 11 0 4 363
2007-08-27 1 27 0 6 720
2007-08-28 1 17 0 0 580
2007-08-29 2 9 0 0 492
2007-08-30 3 27 0 5 648
2007-08-31 1 8 0 5 311
Juillet 2007 18 127 1 4 10 165
Juin 2007 25 309 2 6 13 196
Mai 2007 30 315 8 7 11 830
Avril 2007 44 428 13 9 13 382
Mars 2007 52 176 13 4 1 693
2007-03-08 5 5 1 2 0
2007-03-09 4 10 2 3 0
2007-03-10 0 0 0 1 0
2007-03-11 0 2 0 2 0
2007-03-12 1 5 0 2 0
2007-03-13 18 26 0 2 0
2007-03-14 4 7 0 3 0
2007-03-15 0 1 0 1 0
2007-03-16 0 1 0 2 0
2007-03-17 0 0 0 1 0
2007-03-18 0 0 2 2 0
2007-03-19 1 4 1 2 0
2007-03-20 3 10 2 2 0
2007-03-21 1 3 0 1 0
2007-03-22 1 13 1 3 0
2007-03-23 4 12 1 4 0
2007-03-24 1 2 1 1 0
2007-03-25 0 2 0 2 0
2007-03-26 4 12 1 2 223
2007-03-27 2 30 0 3 507
2007-03-28 0 13 0 3 452
2007-03-29 1 6 0 2 100
2007-03-30 0 3 0 3 131
2007-03-31 2 9 1 3 280